Observation data for Happy on 02/13/2018      Previous  Date  Next       Current Mesonet Observations  Soil Data  Daily Summary Page  Observations in Plain Language
KHA2 130600Z 14005KT M06/M13 A3025 RMK A01 T10551134  RH  054%=      5-min Rain = 0
KHA2 130601Z 14005KT M06/M13 A3025 RMK A01 T10561134  RH  054%=      5-min Rain = 0
KHA2 130602Z 14005KT M06/M13 A3025 RMK A01 T10561134  RH  054%=      5-min Rain = 0
KHA2 130603Z 14005KT M06/M14 A3025 RMK A01 T10571135  RH  054%=      5-min Rain = 0
KHA2 130604Z 14005KT M06/M14 A3025 RMK A01 T10571135  RH  054%=      5-min Rain = 0
KHA2 130605Z 14005KT M06/M14 A3025 RMK A01 T10571135  RH  054%=      5-min Rain = 0
KHA2 130606Z 15005KT M06/M14 A3025 RMK A01 T10581135  RH  054%=      5-min Rain = 0
KHA2 130607Z 15005KT M06/M14 A3025 RMK A01 T10581135  RH  054%=      5-min Rain = 0
KHA2 130608Z 15005KT M06/M14 A3025 RMK A01 T10581135  RH  054%=      5-min Rain = 0
KHA2 130609Z 15005KT M06/M14 A3026 RMK A01 T10581135  RH  054%=      5-min Rain = 0
KHA2 130610Z 16005KT M06/M14 A3026 RMK A01 T10581135  RH  054%=      5-min Rain = 0
KHA2 130611Z 16005KT M06/M14 A3026 RMK A01 T10581136  RH  054%=      5-min Rain = 0
KHA2 130612Z 16005KT M06/M14 A3025 RMK A01 T10581136  RH  054%=      5-min Rain = 0
KHA2 130613Z 15005KT M06/M14 A3025 RMK A01 T10581136  RH  054%=      5-min Rain = 0
KHA2 130614Z 16006KT M06/M14 A3025 RMK A01 T10581136  RH  054%=      5-min Rain = 0
KHA2 130615Z 16006KT M06/M14 A3025 RMK A01 T10591137  RH  054%=      5-min Rain = 0
KHA2 130616Z 15007KT M06/M14 A3025 RMK A01 T10601137  RH  054%=      5-min Rain = 0
KHA2 130617Z 16007KT M06/M14 A3025 RMK A01 T10621137  RH  055%=      5-min Rain = 0
KHA2 130618Z 16007KT M06/M14 A3025 RMK A01 T10631137  RH  056%=      5-min Rain = 0
KHA2 130619Z 16007KT M06/M14 A3025 RMK A01 T10641137  RH  056%=      5-min Rain = 0
KHA2 130620Z 16008KT M07/M14 A3025 RMK A01 T10661136  RH  057%=      5-min Rain = 0
KHA2 130621Z 16007KT M07/M14 A3025 RMK A01 T10671136  RH  058%=      5-min Rain = 0
KHA2 130622Z 16007KT M07/M14 A3025 RMK A01 T10681135  RH  059%=      5-min Rain = 0
KHA2 130623Z 16007KT M07/M13 A3025 RMK A01 T10681134  RH  059%=      5-min Rain = 0
KHA2 130624Z 16007KT M07/M13 A3025 RMK A01 T10681134  RH  060%=      5-min Rain = 0
KHA2 130625Z 15006KT M07/M13 A3025 RMK A01 T10681133  RH  060%=      5-min Rain = 0
KHA2 130626Z 15006KT M07/M13 A3026 RMK A01 T10681132  RH  060%=      5-min Rain = 0
KHA2 130627Z 15006KT M07/M13 A3026 RMK A01 T10681131  RH  060%=      5-min Rain = 0
KHA2 130628Z 15006KT M07/M13 A3026 RMK A01 T10671131  RH  060%=      5-min Rain = 0
KHA2 130629Z 15006KT M07/M13 A3026 RMK A01 T10671130  RH  060%=      5-min Rain = 0
KHA2 130630Z 15006KT M07/M13 A3026 RMK A01 T10661130  RH  060%=      5-min Rain = 0
KHA2 130631Z 15006KT M07/M13 A3026 RMK A01 T10651129  RH  060%=      5-min Rain = 0
KHA2 130632Z 14006KT M07/M13 A3025 RMK A01 T10651129  RH  060%=      5-min Rain = 0
KHA2 130633Z 14006KT M07/M13 A3025 RMK A01 T10651130  RH  060%=      5-min Rain = 0
KHA2 130634Z 14006KT M07/M13 A3025 RMK A01 T10651130  RH  060%=      5-min Rain = 0
KHA2 130635Z 14006KT M07/M13 A3026 RMK A01 T10651130  RH  060%=      5-min Rain = 0
KHA2 130636Z 14006KT M07/M13 A3026 RMK A01 T10651130  RH  060%=      5-min Rain = 0
KHA2 130637Z 15006KT M07/M13 A3026 RMK A01 T10651130  RH  060%=      5-min Rain = 0
KHA2 130638Z 15006KT M07/M13 A3026 RMK A01 T10651130  RH  060%=      5-min Rain = 0
KHA2 130639Z 15006KT M07/M13 A3026 RMK A01 T10651130  RH  060%=      5-min Rain = 0
KHA2 130640Z 15006KT M07/M13 A3026 RMK A01 T10651130  RH  060%=      5-min Rain = 0
KHA2 130641Z 15005KT M07/M13 A3026 RMK A01 T10651130  RH  060%=      5-min Rain = 0
KHA2 130642Z 15005KT M07/M13 A3026 RMK A01 T10651129  RH  060%=      5-min Rain = 0
KHA2 130643Z 15006KT M07/M13 A3026 RMK A01 T10651129  RH  060%=      5-min Rain = 0
KHA2 130644Z 15006KT M07/M13 A3026 RMK A01 T10651129  RH  060%=      5-min Rain = 0
KHA2 130645Z 15006KT M07/M13 A3026 RMK A01 T10651129  RH  060%=      5-min Rain = 0
KHA2 130646Z 15006KT M06/M13 A3026 RMK A01 T10641128  RH  061%=      5-min Rain = 0
KHA2 130647Z 15006KT M06/M13 A3026 RMK A01 T10641128  RH  061%=      5-min Rain = 0
KHA2 130648Z 15006KT M06/M13 A3025 RMK A01 T10641128  RH  060%=      5-min Rain = 0
KHA2 130649Z 15006KT M06/M13 A3025 RMK A01 T10641127  RH  061%=      5-min Rain = 0
KHA2 130650Z 15006KT M06/M13 A3025 RMK A01 T10631127  RH  060%=      5-min Rain = 0
KHA2 130651Z 15006KT M06/M13 A3025 RMK A01 T10641128  RH  060%=      5-min Rain = 0
KHA2 130652Z 15006KT M06/M13 A3026 RMK A01 T10641128  RH  060%=      5-min Rain = 0
KHA2 130653Z 15005KT M06/M13 A3026 RMK A01 T10641129  RH  060%=      5-min Rain = 0
KHA2 130654Z 15005KT M07/M13 A3026 RMK A01 T10651130  RH  060%=      5-min Rain = 0
KHA2 130655Z 14005KT M07/M13 A3026 RMK A01 T10661131  RH  060%=      5-min Rain = 0
KHA2 130656Z 14005KT M07/M13 A3026 RMK A01 T10671131  RH  060%=      5-min Rain = 0
KHA2 130657Z 14005KT M07/M13 A3026 RMK A01 T10671130  RH  061%=      5-min Rain = 0
KHA2 130658Z 14004KT M07/M13 A3026 RMK A01 T10671130  RH  061%=      5-min Rain = 0
KHA2 130659Z 14004KT M07/M13 A3026 RMK A01 T10681131  RH  061%=      5-min Rain = 0
KHA2 130700Z 13004KT M07/M13 A3026 RMK A01 T10681131  RH  061%=      5-min Rain = 0
KHA2 130701Z 13004KT M07/M13 A3026 RMK A01 T10691132  RH  061%=      5-min Rain = 0
KHA2 130702Z 13004KT M07/M13 A3026 RMK A01 T10691131  RH  061%=      5-min Rain = 0
KHA2 130703Z 13004KT M07/M13 A3026 RMK A01 T10691132  RH  061%=      5-min Rain = 0
KHA2 130704Z 13005KT M07/M13 A3026 RMK A01 T10691131  RH  061%=      5-min Rain = 0
KHA2 130705Z 12006KT M07/M13 A3026 RMK A01 T10671129  RH  062%=      5-min Rain = 0
KHA2 130706Z 13006KT M06/M13 A3026 RMK A01 T10641127  RH  061%=      5-min Rain = 0
KHA2 130707Z 13006KT M06/M13 A3026 RMK A01 T10631127  RH  060%=      5-min Rain = 0
KHA2 130708Z 13006KT M06/M13 A3025 RMK A01 T10611127  RH  059%=      5-min Rain = 0
KHA2 130709Z 13006KT M06/M13 A3025 RMK A01 T10601127  RH  059%=      5-min Rain = 0
KHA2 130710Z 13006KT M06/M13 A3025 RMK A01 T10591128  RH  058%=      5-min Rain = 0
KHA2 130711Z 13007KT M06/M13 A3025 RMK A01 T10591128  RH  058%=      5-min Rain = 0
KHA2 130712Z 14006KT M06/M13 A3025 RMK A01 T10591130  RH  058%=      5-min Rain = 0
KHA2 130713Z 14006KT M06/M13 A3025 RMK A01 T10611132  RH  057%=      5-min Rain = 0
KHA2 130714Z 14006KT M06/M13 A3025 RMK A01 T10621132  RH  057%=      5-min Rain = 0
KHA2 130715Z 15006KT M06/M13 A3025 RMK A01 T10621133  RH  058%=      5-min Rain = 0
KHA2 130716Z 15006KT M06/M13 A3025 RMK A01 T10631133  RH  058%=      5-min Rain = 0
KHA2 130717Z 15006KT M06/M13 A3025 RMK A01 T10641134  RH  058%=      5-min Rain = 0
KHA2 130718Z 15007KT M07/M13 A3025 RMK A01 T10651134  RH  058%=      5-min Rain = 0
KHA2 130719Z 15006KT M07/M13 A3025 RMK A01 T10651134  RH  058%=      5-min Rain = 0
KHA2 130720Z 15006KT M07/M13 A3025 RMK A01 T10661134  RH  059%=      5-min Rain = 0
KHA2 130721Z 15006KT M07/M14 A3025 RMK A01 T10671135  RH  059%=      5-min Rain = 0
KHA2 130722Z 15006KT M07/M14 A3025 RMK A01 T10681135  RH  059%=      5-min Rain = 0
KHA2 130723Z 15006KT M07/M14 A3025 RMK A01 T10691136  RH  059%=      5-min Rain = 0
KHA2 130724Z 15006KT M07/M14 A3025 RMK A01 T10701137  RH  059%=      5-min Rain = 0
KHA2 130725Z 15006KT M07/M14 A3025 RMK A01 T10711137  RH  059%=      5-min Rain = 0
KHA2 130726Z 15006KT M07/M14 A3025 RMK A01 T10711137  RH  059%=      5-min Rain = 0
KHA2 130727Z 15006KT M07/M14 A3025 RMK A01 T10721137  RH  060%=      5-min Rain = 0
KHA2 130728Z 15006KT M07/M14 A3025 RMK A01 T10721137  RH  060%=      5-min Rain = 0
KHA2 130729Z 14007KT M07/M14 A3025 RMK A01 T10731136  RH  061%=      5-min Rain = 0
KHA2 130730Z 14007KT M07/M14 A3025 RMK A01 T10741136  RH  061%=      5-min Rain = 0
KHA2 130731Z 15007KT M07/M14 A3025 RMK A01 T10741135  RH  061%=      5-min Rain = 0
KHA2 130732Z 14007KT M07/M14 A3025 RMK A01 T10741135  RH  062%=      5-min Rain = 0
KHA2 130733Z 14008KT M08/M14 A3025 RMK A01 T10751135  RH  062%=      5-min Rain = 0
KHA2 130734Z 14007KT M08/M13 A3025 RMK A01 T10761134  RH  063%=      5-min Rain = 0
KHA2 130735Z 14007KT M08/M13 A3025 RMK A01 T10751133  RH  064%=      5-min Rain = 0
KHA2 130736Z 14007KT M08/M13 A3025 RMK A01 T10761132  RH  064%=      5-min Rain = 0
KHA2 130737Z 13006KT M08/M13 A3025 RMK A01 T10751129  RH  065%=      5-min Rain = 0
KHA2 130738Z 13006KT M07/M13 A3025 RMK A01 T10731127  RH  065%=      5-min Rain = 0
KHA2 130739Z 13006KT M07/M13 A3025 RMK A01 T10711125  RH  065%=      5-min Rain = 0
KHA2 130740Z 13006KT M07/M13 A3025 RMK A01 T10701125  RH  065%=      5-min Rain = 0
KHA2 130741Z 13006KT M07/M12 A3025 RMK A01 T10681123  RH  065%=      5-min Rain = 0
KHA2 130742Z 13005KT M07/M12 A3025 RMK A01 T10661123  RH  064%=      5-min Rain = 0
KHA2 130743Z 13005KT M07/M12 A3025 RMK A01 T10661124  RH  063%=      5-min Rain = 0
KHA2 130744Z 13005KT M07/M12 A3025 RMK A01 T10651124  RH  063%=      5-min Rain = 0
KHA2 130745Z 13005KT M07/M13 A3025 RMK A01 T10651125  RH  063%=      5-min Rain = 0
KHA2 130746Z 12004KT M06/M12 A3025 RMK A01 T10641124  RH  062%=      5-min Rain = 0
KHA2 130747Z 12004KT M06/M12 A3025 RMK A01 T10641123  RH  063%=      5-min Rain = 0
KHA2 130748Z 12004KT M06/M12 A3025 RMK A01 T10631121  RH  064%=      5-min Rain = 0
KHA2 130749Z 12004KT M06/M12 A3025 RMK A01 T10621119  RH  064%=      5-min Rain = 0
KHA2 130750Z 11004KT M06/M12 A3025 RMK A01 T10611118  RH  064%=      5-min Rain = 0
KHA2 130751Z 11004KT M06/M12 A3025 RMK A01 T10601117  RH  064%=      5-min Rain = 0
KHA2 130752Z 11004KT M06/M12 A3025 RMK A01 T10591115  RH  065%=      5-min Rain = 0
KHA2 130753Z 11004KT M06/M11 A3025 RMK A01 T10571114  RH  064%=      5-min Rain = 0
KHA2 130754Z 10004KT M06/M11 A3025 RMK A01 T10561114  RH  064%=      5-min Rain = 0
KHA2 130755Z 10004KT M06/M11 A3025 RMK A01 T10561114  RH  063%=      5-min Rain = 0
KHA2 130756Z 10005KT M06/M12 A3025 RMK A01 T10551115  RH  063%=      5-min Rain = 0
KHA2 130757Z 10004KT M05/M11 A3025 RMK A01 T10541114  RH  063%=      5-min Rain = 0
KHA2 130758Z 10004KT M05/M11 A3025 RMK A01 T10541114  RH  062%=      5-min Rain = 0
KHA2 130759Z 10004KT M05/M11 A3025 RMK A01 T10541114  RH  062%=      5-min Rain = 0
KHA2 130800Z 10004KT M05/M11 A3025 RMK A01 T10531114  RH  062%=      5-min Rain = 0
KHA2 130801Z 09003KT M05/M12 A3025 RMK A01 T10521115  RH  062%=      5-min Rain = 0
KHA2 130802Z 09002KT M05/M12 A3025 RMK A01 T10531119  RH  060%=      5-min Rain = 0
KHA2 130803Z 09003KT M06/M12 A3025 RMK A01 T10551122  RH  059%=      5-min Rain = 0
KHA2 130804Z 09003KT M06/M12 A3026 RMK A01 T10561122  RH  060%=      5-min Rain = 0
KHA2 130805Z 09003KT M06/M12 A3026 RMK A01 T10571122  RH  060%=      5-min Rain = 0
KHA2 130806Z 09003KT M06/M12 A3025 RMK A01 T10571121  RH  060%=      5-min Rain = 0
KHA2 130807Z 09003KT M06/M12 A3025 RMK A01 T10561120  RH  061%=      5-min Rain = 0
KHA2 130808Z 10003KT M06/M12 A3026 RMK A01 T10571120  RH  061%=      5-min Rain = 0
KHA2 130809Z 10003KT M06/M12 A3025 RMK A01 T10571120  RH  061%=      5-min Rain = 0
KHA2 130810Z 10003KT M06/M12 A3025 RMK A01 T10571119  RH  062%=      5-min Rain = 0
KHA2 130811Z 10003KT M06/M12 A3025 RMK A01 T10571118  RH  062%=      5-min Rain = 0
KHA2 130812Z 11003KT M06/M12 A3025 RMK A01 T10571118  RH  062%=      5-min Rain = 0
KHA2 130813Z 11004KT M06/M12 A3025 RMK A01 T10581117  RH  063%=      5-min Rain = 0
KHA2 130814Z 12004KT M06/M11 A3025 RMK A01 T10571114  RH  064%=      5-min Rain = 0
KHA2 130815Z 12004KT M06/M11 A3025 RMK A01 T10561112  RH  065%=      5-min Rain = 0
KHA2 130816Z 12005KT M06/M11 A3025 RMK A01 T10551114  RH  063%=      5-min Rain = 0
KHA2 130817Z 13005KT M06/M12 A3025 RMK A01 T10561119  RH  061%=      5-min Rain = 0
KHA2 130818Z 13005KT M06/M12 A3025 RMK A01 T10571122  RH  060%=      5-min Rain = 0
KHA2 130819Z 13005KT M06/M12 A3025 RMK A01 T10581123  RH  060%=      5-min Rain = 0
KHA2 130820Z 13005KT M06/M13 A3025 RMK A01 T10601125  RH  060%=      5-min Rain = 0
KHA2 130821Z 13005KT M06/M13 A3025 RMK A01 T10611126  RH  060%=      5-min Rain = 0
KHA2 130822Z 14005KT M06/M13 A3025 RMK A01 T10621126  RH  061%=      5-min Rain = 0
KHA2 130823Z 14005KT M06/M13 A3025 RMK A01 T10641127  RH  061%=      5-min Rain = 0
KHA2 130824Z 14005KT M07/M13 A3025 RMK A01 T10651127  RH  061%=      5-min Rain = 0
KHA2 130825Z 14005KT M07/M13 A3025 RMK A01 T10661128  RH  061%=      5-min Rain = 0
KHA2 130826Z 14005KT M07/M13 A3025 RMK A01 T10671129  RH  062%=      5-min Rain = 0
KHA2 130827Z 14005KT M07/M13 A3025 RMK A01 T10681129  RH  062%=      5-min Rain = 0
KHA2 130828Z 13004KT M07/M13 A3025 RMK A01 T10691130  RH  062%=      5-min Rain = 0
KHA2 130829Z 13004KT M07/M13 A3025 RMK A01 T10691129  RH  063%=      5-min Rain = 0
KHA2 130830Z 13004KT M07/M13 A3025 RMK A01 T10691128  RH  063%=      5-min Rain = 0
KHA2 130831Z 13004KT M07/M13 A3025 RMK A01 T10691128  RH  063%=      5-min Rain = 0
KHA2 130832Z 12004KT M07/M13 A3025 RMK A01 T10691127  RH  063%=      5-min Rain = 0
KHA2 130833Z 12005KT M07/M13 A3025 RMK A01 T10691127  RH  063%=      5-min Rain = 0
KHA2 130834Z 12005KT M07/M13 A3025 RMK A01 T10681126  RH  063%=      5-min Rain = 0
KHA2 130835Z 11005KT M07/M12 A3025 RMK A01 T10671123  RH  064%=      5-min Rain = 0
KHA2 130836Z 11005KT M07/M12 A3025 RMK A01 T10651119  RH  065%=      5-min Rain = 0
KHA2 130837Z 11005KT M06/M12 A3025 RMK A01 T10631116  RH  066%=      5-min Rain = 0
KHA2 130838Z 11005KT M06/M12 A3025 RMK A01 T10621115  RH  066%=      5-min Rain = 0
KHA2 130839Z 11005KT M06/M11 A3025 RMK A01 T10611114  RH  066%=      5-min Rain = 0
KHA2 130840Z 11005KT M06/M11 A3025 RMK A01 T10601113  RH  066%=      5-min Rain = 0
KHA2 130841Z 11005KT M06/M11 A3025 RMK A01 T10591113  RH  066%=      5-min Rain = 0
KHA2 130842Z 11005KT M06/M11 A3025 RMK A01 T10591113  RH  065%=      5-min Rain = 0
KHA2 130843Z 10005KT M06/M11 A3025 RMK A01 T10581114  RH  065%=      5-min Rain = 0
KHA2 130844Z 10004KT M06/M11 A3025 RMK A01 T10581114  RH  065%=      5-min Rain = 0
KHA2 130845Z 10004KT M06/M11 A3025 RMK A01 T10581114  RH  065%=      5-min Rain = 0
KHA2 130846Z 10004KT M06/M11 A3025 RMK A01 T10581114  RH  064%=      5-min Rain = 0
KHA2 130847Z 09003KT M06/M11 A3025 RMK A01 T10581114  RH  064%=      5-min Rain = 0
KHA2 130848Z 09004KT M06/M11 A3025 RMK A01 T10571113  RH  065%=      5-min Rain = 0
KHA2 130849Z 09004KT M06/M11 A3025 RMK A01 T10581112  RH  065%=      5-min Rain = 0
KHA2 130850Z 10004KT M06/M11 A3025 RMK A01 T10581112  RH  065%=      5-min Rain = 0
KHA2 130851Z 10004KT M06/M11 A3025 RMK A01 T10571112  RH  065%=      5-min Rain = 0
KHA2 130852Z 10004KT M06/M11 A3025 RMK A01 T10581112  RH  065%=      5-min Rain = 0
KHA2 130853Z 10004KT M06/M11 A3025 RMK A01 T10581112  RH  066%=      5-min Rain = 0
KHA2 130854Z 10004KT M06/M11 A3025 RMK A01 T10571110  RH  066%=      5-min Rain = 0
KHA2 130855Z 11004KT M06/M11 A3025 RMK A01 T10561108  RH  067%=      5-min Rain = 0
KHA2 130856Z 11005KT M06/M11 A3025 RMK A01 T10551107  RH  067%=      5-min Rain = 0
KHA2 130857Z 12005KT M06/M11 A3025 RMK A01 T10551108  RH  066%=      5-min Rain = 0
KHA2 130858Z 12005KT M05/M11 A3025 RMK A01 T10541111  RH  064%=      5-min Rain = 0
KHA2 130859Z 12005KT M06/M12 A3025 RMK A01 T10551115  RH  063%=      5-min Rain = 0
KHA2 130900Z 12005KT M06/M12 A3025 RMK A01 T10561118  RH  062%=      5-min Rain = 0
KHA2 130901Z 12005KT M06/M12 A3025 RMK A01 T10581119  RH  062%=      5-min Rain = 0
KHA2 130902Z 12005KT M06/M12 A3025 RMK A01 T10591119  RH  062%=      5-min Rain = 0
KHA2 130903Z 12004KT M06/M12 A3025 RMK A01 T10591119  RH  062%=      5-min Rain = 0
KHA2 130904Z 12004KT M06/M12 A3025 RMK A01 T10601120  RH  063%=      5-min Rain = 0
KHA2 130905Z 12004KT M06/M12 A3025 RMK A01 T10601119  RH  063%=      5-min Rain = 0
KHA2 130906Z 12004KT M06/M12 A3025 RMK A01 T10601118  RH  063%=      5-min Rain = 0
KHA2 130907Z 12004KT M06/M12 A3025 RMK A01 T10611119  RH  064%=      5-min Rain = 0
KHA2 130908Z 13004KT M06/M12 A3025 RMK A01 T10611119  RH  063%=      5-min Rain = 0
KHA2 130909Z 13003KT M06/M12 A3025 RMK A01 T10611120  RH  063%=      5-min Rain = 0
KHA2 130910Z 14003KT M06/M12 A3025 RMK A01 T10611121  RH  063%=      5-min Rain = 0
KHA2 130911Z 14003KT M06/M12 A3025 RMK A01 T10621122  RH  063%=      5-min Rain = 0
KHA2 130912Z 14003KT M06/M12 A3025 RMK A01 T10621122  RH  063%=      5-min Rain = 0
KHA2 130913Z 14003KT M06/M12 A3025 RMK A01 T10631123  RH  063%=      5-min Rain = 0
KHA2 130914Z 14003KT M06/M12 A3025 RMK A01 T10641123  RH  063%=      5-min Rain = 0
KHA2 130915Z 14003KT M06/M12 A3025 RMK A01 T10641124  RH  063%=      5-min Rain = 0
KHA2 130916Z 14003KT M07/M12 A3025 RMK A01 T10651124  RH  063%=      5-min Rain = 0
KHA2 130917Z 15003KT M07/M12 A3025 RMK A01 T10651124  RH  063%=      5-min Rain = 0
KHA2 130918Z 15003KT M07/M13 A3025 RMK A01 T10661125  RH  063%=      5-min Rain = 0
KHA2 130919Z 15003KT M07/M12 A3025 RMK A01 T10661124  RH  063%=      5-min Rain = 0
KHA2 130920Z 15003KT M07/M12 A3025 RMK A01 T10671124  RH  064%=      5-min Rain = 0
KHA2 130921Z 14003KT M07/M12 A3025 RMK A01 T10671123  RH  064%=      5-min Rain = 0
KHA2 130922Z 14003KT M07/M12 A3025 RMK A01 T10661122  RH  065%=      5-min Rain = 0
KHA2 130923Z 14003KT M07/M12 A3025 RMK A01 T10661121  RH  065%=      5-min Rain = 0
KHA2 130924Z 15003KT M07/M12 A3025 RMK A01 T10671121  RH  065%=      5-min Rain = 0
KHA2 130925Z 15003KT M07/M12 A3025 RMK A01 T10661121  RH  065%=      5-min Rain = 0
KHA2 130926Z 15003KT M07/M12 A3025 RMK A01 T10661121  RH  065%=      5-min Rain = 0
KHA2 130927Z 15004KT M07/M12 A3025 RMK A01 T10671121  RH  065%=      5-min Rain = 0
KHA2 130928Z 15004KT M07/M12 A3025 RMK A01 T10661121  RH  065%=      5-min Rain = 0
KHA2 130929Z 16004KT M07/M12 A3025 RMK A01 T10661120  RH  065%=      5-min Rain = 0
KHA2 130930Z 17004KT M07/M12 A3025 RMK A01 T10661121  RH  065%=      5-min Rain = 0
KHA2 130931Z 17004KT M07/M12 A3025 RMK A01 T10671122  RH  065%=      5-min Rain = 0
KHA2 130932Z 17003KT M07/M12 A3025 RMK A01 T10671123  RH  064%=      5-min Rain = 0
KHA2 130933Z 17003KT M07/M12 A3025 RMK A01 T10681123  RH  065%=      5-min Rain = 0
KHA2 130934Z 17003KT M07/M12 A3025 RMK A01 T10681123  RH  065%=      5-min Rain = 0
KHA2 130935Z 17003KT M07/M12 A3025 RMK A01 T10681121  RH  066%=      5-min Rain = 0
KHA2 130936Z 17003KT M07/M12 A3025 RMK A01 T10671120  RH  066%=      5-min Rain = 0
KHA2 130937Z 17003KT M07/M12 A3025 RMK A01 T10671120  RH  066%=      5-min Rain = 0
KHA2 130938Z 17003KT M07/M12 A3025 RMK A01 T10671121  RH  065%=      5-min Rain = 0
KHA2 130939Z 17003KT M07/M12 A3025 RMK A01 T10671122  RH  065%=      5-min Rain = 0
KHA2 130940Z 17003KT M07/M12 A3025 RMK A01 T10681122  RH  065%=      5-min Rain = 0
KHA2 130941Z 17003KT M07/M12 A3025 RMK A01 T10681121  RH  066%=      5-min Rain = 0
KHA2 130942Z 17003KT M07/M12 A3025 RMK A01 T10681120  RH  067%=      5-min Rain = 0
KHA2 130943Z 17003KT M07/M12 A3025 RMK A01 T10671118  RH  067%=      5-min Rain = 0
KHA2 130944Z 17003KT M07/M12 A3025 RMK A01 T10671118  RH  067%=      5-min Rain = 0
KHA2 130945Z 17003KT M07/M12 A3025 RMK A01 T10671119  RH  066%=      5-min Rain = 0
KHA2 130946Z 17003KT M07/M12 A3025 RMK A01 T10671120  RH  066%=      5-min Rain = 0
KHA2 130947Z 17004KT M07/M12 A3025 RMK A01 T10671119  RH  066%=      5-min Rain = 0
KHA2 130948Z 17004KT M07/M12 A3025 RMK A01 T10671119  RH  066%=      5-min Rain = 0
KHA2 130949Z 17004KT M07/M12 A3025 RMK A01 T10671120  RH  066%=      5-min Rain = 0
KHA2 130950Z 17004KT M07/M12 A3025 RMK A01 T10681121  RH  066%=      5-min Rain = 0
KHA2 130951Z 17004KT M07/M12 A3025 RMK A01 T10701123  RH  066%=      5-min Rain = 0
KHA2 130952Z 17003KT M07/M13 A3025 RMK A01 T10711125  RH  065%=      5-min Rain = 0
KHA2 130953Z 17003KT M07/M13 A3025 RMK A01 T10721125  RH  066%=      5-min Rain = 0
KHA2 130954Z 18003KT M07/M12 A3025 RMK A01 T10721124  RH  067%=      5-min Rain = 0
KHA2 130955Z 18002KT M07/M12 A3025 RMK A01 T10721121  RH  068%=      5-min Rain = 0
KHA2 130956Z 18002KT M07/M12 A3025 RMK A01 T10711121  RH  068%=      5-min Rain = 0
KHA2 130957Z 18003KT M07/M12 A3025 RMK A01 T10701121  RH  067%=      5-min Rain = 0
KHA2 130958Z 17003KT M07/M12 A3025 RMK A01 T10701121  RH  067%=      5-min Rain = 0
KHA2 130959Z 17003KT M07/M12 A3025 RMK A01 T10701121  RH  067%=      5-min Rain = 0
KHA2 131000Z 17003KT M07/M12 A3025 RMK A01 T10691120  RH  067%=      5-min Rain = 0
KHA2 131001Z 17003KT M07/M12 A3025 RMK A01 T10691120  RH  067%=      5-min Rain = 0
KHA2 131002Z 17004KT M07/M12 A3025 RMK A01 T10691121  RH  066%=      5-min Rain = 0
KHA2 131003Z 17004KT M07/M12 A3025 RMK A01 T10701122  RH  067%=      5-min Rain = 0
KHA2 131004Z 17004KT M07/M12 A3025 RMK A01 T10701121  RH  067%=      5-min Rain = 0
KHA2 131005Z 18004KT M07/M12 A3025 RMK A01 T10701121  RH  067%=      5-min Rain = 0
KHA2 131006Z 18004KT M07/M12 A3025 RMK A01 T10701120  RH  067%=      5-min Rain = 0
KHA2 131007Z 18004KT M07/M12 A3025 RMK A01 T10701120  RH  068%=      5-min Rain = 0
KHA2 131008Z 18004KT M07/M12 A3025 RMK A01 T10701120  RH  067%=      5-min Rain = 0
KHA2 131009Z 18004KT M07/M12 A3025 RMK A01 T10701121  RH  067%=      5-min Rain = 0
KHA2 131010Z 18004KT M07/M12 A3025 RMK A01 T10701122  RH  067%=      5-min Rain = 0
KHA2 131011Z 18004KT M07/M12 A3025 RMK A01 T10701121  RH  067%=      5-min Rain = 0
KHA2 131012Z 18004KT M07/M12 A3025 RMK A01 T10711123  RH  067%=      5-min Rain = 0
KHA2 131013Z 17005KT M07/M12 A3025 RMK A01 T10721123  RH  067%=      5-min Rain = 0
KHA2 131014Z 17005KT M07/M12 A3025 RMK A01 T10731123  RH  067%=      5-min Rain = 0
KHA2 131015Z 18005KT M07/M12 A3025 RMK A01 T10741123  RH  068%=      5-min Rain = 0
KHA2 131016Z 17005KT M08/M12 A3025 RMK A01 T10751123  RH  069%=      5-min Rain = 0
KHA2 131017Z 18005KT M08/M12 A3025 RMK A01 T10751122  RH  069%=      5-min Rain = 0
KHA2 131018Z 18005KT M08/M12 A3025 RMK A01 T10761121  RH  070%=      5-min Rain = 0
KHA2 131019Z 18005KT M08/M12 A3025 RMK A01 T10761120  RH  071%=      5-min Rain = 0
KHA2 131020Z 18005KT M08/M12 A3025 RMK A01 T10761119  RH  071%=      5-min Rain = 0
KHA2 131021Z 18005KT M08/M12 A3025 RMK A01 T10761119  RH  071%=      5-min Rain = 0
KHA2 131022Z 18004KT M08/M12 A3025 RMK A01 T10761119  RH  071%=      5-min Rain = 0
KHA2 131023Z 18004KT M08/M12 A3025 RMK A01 T10751118  RH  071%=      5-min Rain = 0
KHA2 131024Z 18004KT M07/M12 A3025 RMK A01 T10741117  RH  071%=      5-min Rain = 0
KHA2 131025Z 18004KT M07/M12 A3025 RMK A01 T10741117  RH  071%=      5-min Rain = 0
KHA2 131026Z 18004KT M07/M12 A3025 RMK A01 T10741117  RH  071%=      5-min Rain = 0
KHA2 131027Z 18004KT M07/M12 A3025 RMK A01 T10731116  RH  071%=      5-min Rain = 0
KHA2 131028Z 18004KT M07/M12 A3025 RMK A01 T10721116  RH  071%=      5-min Rain = 0
KHA2 131029Z 19004KT M07/M12 A3025 RMK A01 T10721116  RH  071%=      5-min Rain = 0
KHA2 131030Z 18004KT M07/M12 A3025 RMK A01 T10721115  RH  071%=      5-min Rain = 0
KHA2 131031Z 18004KT M07/M11 A3025 RMK A01 T10711114  RH  071%=      5-min Rain = 0
KHA2 131032Z 18004KT M07/M11 A3025 RMK A01 T10711114  RH  071%=      5-min Rain = 0
KHA2 131033Z 18004KT M07/M11 A3025 RMK A01 T10711114  RH  071%=      5-min Rain = 0
KHA2 131034Z 18004KT M07/M12 A3025 RMK A01 T10701115  RH  071%=      5-min Rain = 0
KHA2 131035Z 18004KT M07/M12 A3025 RMK A01 T10711115  RH  071%=      5-min Rain = 0
KHA2 131036Z 18004KT M07/M12 A3025 RMK A01 T10711115  RH  071%=      5-min Rain = 0
KHA2 131037Z 18004KT M07/M12 A3025 RMK A01 T10711115  RH  071%=      5-min Rain = 0
KHA2 131038Z 18005KT M07/M12 A3025 RMK A01 T10711115  RH  071%=      5-min Rain = 0
KHA2 131039Z 18005KT M07/M12 A3025 RMK A01 T10711115  RH  071%=      5-min Rain = 0
KHA2 131040Z 18004KT M07/M12 A3025 RMK A01 T10711115  RH  071%=      5-min Rain = 0
KHA2 131041Z 18004KT M07/M12 A3025 RMK A01 T10711116  RH  070%=      5-min Rain = 0
KHA2 131042Z 18004KT M07/M12 A3025 RMK A01 T10721117  RH  070%=      5-min Rain = 0
KHA2 131043Z 18004KT M07/M12 A3025 RMK A01 T10721118  RH  070%=      5-min Rain = 0
KHA2 131044Z 17004KT M07/M12 A3025 RMK A01 T10731120  RH  069%=      5-min Rain = 0
KHA2 131045Z 18004KT M07/M12 A3025 RMK A01 T10741120  RH  069%=      5-min Rain = 0
KHA2 131046Z 17004KT M08/M12 A3025 RMK A01 T10751121  RH  070%=      5-min Rain = 0
KHA2 131047Z 18004KT M08/M12 A3025 RMK A01 T10771121  RH  070%=      5-min Rain = 0
KHA2 131048Z 18004KT M08/M12 A3025 RMK A01 T10781121  RH  071%=      5-min Rain = 0
KHA2 131049Z 18004KT M08/M12 A3025 RMK A01 T10791121  RH  072%=      5-min Rain = 0
KHA2 131050Z 18004KT M08/M12 A3025 RMK A01 T10801120  RH  073%=      5-min Rain = 0
KHA2 131051Z 18004KT M08/M12 A3025 RMK A01 T10801120  RH  073%=      5-min Rain = 0
KHA2 131052Z 18003KT M08/M12 A3025 RMK A01 T10801120  RH  073%=      5-min Rain = 0
KHA2 131053Z 18003KT M08/M12 A3025 RMK A01 T10811120  RH  073%=      5-min Rain = 0
KHA2 131054Z 18003KT M08/M12 A3025 RMK A01 T10811121  RH  073%=      5-min Rain = 0
KHA2 131055Z 17003KT M08/M12 A3025 RMK A01 T10811121  RH  073%=      5-min Rain = 0
KHA2 131056Z 17003KT M08/M12 A3025 RMK A01 T10811121  RH  073%=      5-min Rain = 0
KHA2 131057Z 16003KT M08/M12 A3025 RMK A01 T10821120  RH  074%=      5-min Rain = 0
KHA2 131058Z 16003KT M08/M12 A3025 RMK A01 T10811119  RH  074%=      5-min Rain = 0
KHA2 131059Z 15003KT M08/M12 A3025 RMK A01 T10801118  RH  074%=      5-min Rain = 0
KHA2 131100Z 15003KT M08/M12 A3025 RMK A01 T10791117  RH  074%=      5-min Rain = 0
KHA2 131101Z 16003KT M08/M12 A3025 RMK A01 T10781117  RH  073%=      5-min Rain = 0
KHA2 131102Z 15003KT M08/M12 A3025 RMK A01 T10771117  RH  073%=      5-min Rain = 0
KHA2 131103Z 15003KT M08/M12 A3025 RMK A01 T10771116  RH  074%=      5-min Rain = 0
KHA2 131104Z 15003KT M08/M12 A3025 RMK A01 T10761115  RH  074%=      5-min Rain = 0
KHA2 131105Z 14003KT M08/M11 A3025 RMK A01 T10751114  RH  074%=      5-min Rain = 0
KHA2 131106Z 14003KT M07/M11 A3025 RMK A01 T10741114  RH  073%=      5-min Rain = 0
KHA2 131107Z 15003KT M07/M11 A3025 RMK A01 T10731113  RH  073%=      5-min Rain = 0
KHA2 131108Z 15003KT M07/M11 A3025 RMK A01 T10731113  RH  073%=      5-min Rain = 0
KHA2 131109Z 15003KT M07/M11 A3025 RMK A01 T10721112  RH  073%=      5-min Rain = 0
KHA2 131110Z 15003KT M07/M11 A3025 RMK A01 T10711112  RH  072%=      5-min Rain = 0
KHA2 131111Z 15003KT M07/M11 A3025 RMK A01 T10711113  RH  072%=      5-min Rain = 0
KHA2 131112Z 15003KT M07/M11 A3025 RMK A01 T10701113  RH  072%=      5-min Rain = 0
KHA2 131113Z 16003KT M07/M11 A3025 RMK A01 T10701113  RH  071%=      5-min Rain = 0
KHA2 131114Z 16003KT M07/M11 A3025 RMK A01 T10691113  RH  071%=      5-min Rain = 0
KHA2 131115Z 16004KT M07/M11 A3025 RMK A01 T10691112  RH  071%=      5-min Rain = 0
KHA2 131116Z 17004KT M07/M11 A3025 RMK A01 T10691113  RH  071%=      5-min Rain = 0
KHA2 131117Z 17004KT M07/M11 A3025 RMK A01 T10691114  RH  070%=      5-min Rain = 0
KHA2 131118Z 17004KT M07/M11 A3025 RMK A01 T10691114  RH  070%=      5-min Rain = 0
KHA2 131119Z 17004KT M07/M11 A3025 RMK A01 T10691114  RH  070%=      5-min Rain = 0
KHA2 131120Z 17004KT M07/M11 A3025 RMK A01 T10691114  RH  070%=      5-min Rain = 0
KHA2 131121Z 17004KT M07/M12 A3025 RMK A01 T10691115  RH  070%=      5-min Rain = 0
KHA2 131122Z 17004KT M07/M12 A3025 RMK A01 T10701115  RH  070%=      5-min Rain = 0
KHA2 131123Z 17004KT M07/M12 A3025 RMK A01 T10701116  RH  070%=      5-min Rain = 0
KHA2 131124Z 18004KT M07/M12 A3025 RMK A01 T10711117  RH  070%=      5-min Rain = 0
KHA2 131125Z 17004KT M07/M12 A3025 RMK A01 T10721118  RH  070%=      5-min Rain = 0
KHA2 131126Z 17003KT M07/M12 A3025 RMK A01 T10741119  RH  070%=      5-min Rain = 0
KHA2 131127Z 18003KT M08/M12 A3025 RMK A01 T10761122  RH  070%=      5-min Rain = 0
KHA2 131128Z 17003KT M08/M12 A3025 RMK A01 T10781123  RH  070%=      5-min Rain = 0
KHA2 131129Z 17003KT M08/M12 A3025 RMK A01 T10791123  RH  071%=      5-min Rain = 0
KHA2 131130Z 17003KT M08/M12 A3025 RMK A01 T10801124  RH  071%=      5-min Rain = 0
KHA2 131131Z 17003KT M08/M12 A3025 RMK A01 T10821124  RH  071%=      5-min Rain = 0
KHA2 131132Z 17003KT M08/M13 A3025 RMK A01 T10831125  RH  072%=      5-min Rain = 0
KHA2 131133Z 17003KT M08/M12 A3025 RMK A01 T10831124  RH  073%=      5-min Rain = 0
KHA2 131134Z 17003KT M08/M12 A3025 RMK A01 T10841123  RH  073%=      5-min Rain = 0
KHA2 131135Z 17003KT M08/M12 A3025 RMK A01 T10841122  RH  074%=      5-min Rain = 0
KHA2 131136Z 16003KT M08/M12 A3025 RMK A01 T10831121  RH  074%=      5-min Rain = 0
KHA2 131137Z 16003KT M08/M12 A3025 RMK A01 T10821119  RH  075%=      5-min Rain = 0
KHA2 131138Z 15003KT M08/M12 A3025 RMK A01 T10811119  RH  075%=      5-min Rain = 0
KHA2 131139Z 15003KT M08/M12 A3025 RMK A01 T10811118  RH  075%=      5-min Rain = 0
KHA2 131140Z 16003KT M08/M12 A3025 RMK A01 T10801117  RH  075%=      5-min Rain = 0
KHA2 131141Z 15003KT M08/M12 A3025 RMK A01 T10791117  RH  075%=      5-min Rain = 0
KHA2 131142Z 15003KT M08/M12 A3025 RMK A01 T10791116  RH  075%=      5-min Rain = 0
KHA2 131143Z 16003KT M08/M12 A3025 RMK A01 T10781115  RH  075%=      5-min Rain = 0
KHA2 131144Z 16003KT M08/M12 A3025 RMK A01 T10771115  RH  074%=      5-min Rain = 0
KHA2 131145Z 16003KT M08/M12 A3025 RMK A01 T10771115  RH  074%=      5-min Rain = 0
KHA2 131146Z 16003KT M08/M12 A3025 RMK A01 T10761115  RH  074%=      5-min Rain = 0
KHA2 131147Z 16003KT M08/M12 A3025 RMK A01 T10761115  RH  074%=      5-min Rain = 0
KHA2 131148Z 16003KT M08/M12 A3025 RMK A01 T10751115  RH  073%=      5-min Rain = 0
KHA2 131149Z 16004KT M08/M12 A3025 RMK A01 T10751115  RH  073%=      5-min Rain = 0
KHA2 131150Z 16004KT M08/M12 A3025 RMK A01 T10751115  RH  073%=      5-min Rain = 0
KHA2 131151Z 17004KT M07/M12 A3025 RMK A01 T10741115  RH  073%=      5-min Rain = 0
KHA2 131152Z 17004KT M07/M12 A3025 RMK A01 T10741116  RH  072%=      5-min Rain = 0
KHA2 131153Z 18004KT M07/M12 A3025 RMK A01 T10741116  RH  072%=      5-min Rain = 0
KHA2 131154Z 18004KT M08/M12 A3025 RMK A01 T10751117  RH  072%=      5-min Rain = 0
KHA2 131155Z 18004KT M08/M12 A3025 RMK A01 T10751118  RH  072%=      5-min Rain = 0
KHA2 131156Z 18004KT M08/M12 A3025 RMK A01 T10771119  RH  072%=      5-min Rain = 0
KHA2 131157Z 18004KT M08/M12 A3025 RMK A01 T10781120  RH  072%=      5-min Rain = 0
KHA2 131158Z 18005KT M08/M12 A3025 RMK A01 T10791120  RH  072%=      5-min Rain = 0
KHA2 131159Z 18005KT M08/M12 A3025 RMK A01 T10801121  RH  072%=      5-min Rain = 0
KHA2 131200Z 18004KT M08/M12 A3025 RMK A01 T10811122  RH  072%=      5-min Rain = 0
KHA2 131201Z 18003KT M08/M12 A3025 RMK A01 T10811122  RH  072%=      5-min Rain = 0
KHA2 131202Z 18004KT M08/M12 A3025 RMK A01 T10811122  RH  073%=      5-min Rain = 0
KHA2 131203Z 18004KT M08/M12 A3025 RMK A01 T10821122  RH  073%=      5-min Rain = 0
KHA2 131204Z 18004KT M08/M12 A3025 RMK A01 T10821122  RH  073%=      5-min Rain = 0
KHA2 131205Z 18004KT M08/M12 A3025 RMK A01 T10821122  RH  073%=      5-min Rain = 0
KHA2 131206Z 18004KT M08/M12 A3025 RMK A01 T10831120  RH  074%=      5-min Rain = 0
KHA2 131207Z 18004KT M08/M12 A3025 RMK A01 T10821118  RH  075%=      5-min Rain = 0
KHA2 131208Z 18004KT M08/M12 A3025 RMK A01 T10811118  RH  075%=      5-min Rain = 0
KHA2 131209Z 17004KT M08/M12 A3025 RMK A01 T10811117  RH  075%=      5-min Rain = 0
KHA2 131210Z 17004KT M08/M12 A3025 RMK A01 T10811117  RH  075%=      5-min Rain = 0
KHA2 131211Z 17004KT M08/M12 A3025 RMK A01 T10811117  RH  075%=      5-min Rain = 0
KHA2 131212Z 18004KT M08/M12 A3025 RMK A01 T10801117  RH  075%=      5-min Rain = 0
KHA2 131213Z 18004KT M08/M12 A3025 RMK A01 T10801118  RH  074%=      5-min Rain = 0
KHA2 131214Z 17004KT M08/M12 A3025 RMK A01 T10801118  RH  074%=      5-min Rain = 0
KHA2 131215Z 17004KT M08/M12 A3025 RMK A01 T10801118  RH  074%=      5-min Rain = 0
KHA2 131216Z 17004KT M08/M12 A3025 RMK A01 T10801118  RH  074%=      5-min Rain = 0
KHA2 131217Z 17004KT M08/M12 A3025 RMK A01 T10801118  RH  074%=      5-min Rain = 0
KHA2 131218Z 17004KT M08/M12 A3025 RMK A01 T10801118  RH  074%=      5-min Rain = 0
KHA2 131219Z 18004KT M08/M12 A3025 RMK A01 T10801117  RH  075%=      5-min Rain = 0
KHA2 131220Z 17004KT M08/M12 A3025 RMK A01 T10801117  RH  075%=      5-min Rain = 0
KHA2 131221Z 17004KT M08/M12 A3025 RMK A01 T10801117  RH  075%=      5-min Rain = 0
KHA2 131222Z 17005KT M08/M12 A3026 RMK A01 T10801117  RH  075%=      5-min Rain = 0
KHA2 131223Z 17004KT M08/M12 A3026 RMK A01 T10801117  RH  075%=      5-min Rain = 0
KHA2 131224Z 17004KT M08/M12 A3026 RMK A01 T10801117  RH  075%=      5-min Rain = 0
KHA2 131225Z 17004KT M08/M12 A3026 RMK A01 T10801116  RH  075%=      5-min Rain = 0
KHA2 131226Z 17004KT M08/M12 A3026 RMK A01 T10791116  RH  075%=      5-min Rain = 0
KHA2 131227Z 17004KT M08/M12 A3026 RMK A01 T10791115  RH  075%=      5-min Rain = 0
KHA2 131228Z 17004KT M08/M12 A3026 RMK A01 T10791115  RH  076%=      5-min Rain = 0
KHA2 131229Z 17004KT M08/M12 A3026 RMK A01 T10791115  RH  076%=      5-min Rain = 0
KHA2 131230Z 17004KT M08/M11 A3026 RMK A01 T10791114  RH  076%=      5-min Rain = 0
KHA2 131231Z 17004KT M08/M12 A3026 RMK A01 T10801115  RH  076%=      5-min Rain = 0
KHA2 131232Z 17004KT M08/M12 A3026 RMK A01 T10801115  RH  076%=      5-min Rain = 0
KHA2 131233Z 17005KT M08/M12 A3026 RMK A01 T10801115  RH  076%=      5-min Rain = 0
KHA2 131234Z 17005KT M08/M12 A3026 RMK A01 T10801115  RH  076%=      5-min Rain = 0
KHA2 131235Z 17006KT M08/M11 A3026 RMK A01 T10801114  RH  076%=      5-min Rain = 0
KHA2 131236Z 17006KT M08/M11 A3026 RMK A01 T10801114  RH  077%=      5-min Rain = 0
KHA2 131237Z 17006KT M08/M11 A3026 RMK A01 T10801114  RH  077%=      5-min Rain = 0
KHA2 131238Z 17006KT M08/M12 A3026 RMK A01 T10801115  RH  076%=      5-min Rain = 0
KHA2 131239Z 17006KT M08/M12 A3026 RMK A01 T10821116  RH  076%=      5-min Rain = 0
KHA2 131240Z 17006KT M08/M12 A3026 RMK A01 T10821117  RH  076%=      5-min Rain = 0
KHA2 131241Z 17006KT M08/M12 A3026 RMK A01 T10831117  RH  076%=      5-min Rain = 0
KHA2 131242Z 17006KT M08/M12 A3026 RMK A01 T10831117  RH  076%=      5-min Rain = 0
KHA2 131243Z 17006KT M08/M12 A3026 RMK A01 T10841117  RH  077%=      5-min Rain = 0
KHA2 131244Z 17006KT M08/M12 A3026 RMK A01 T10841117  RH  077%=      5-min Rain = 0
KHA2 131245Z 17007KT M09/M12 A3026 RMK A01 T10851117  RH  077%=      5-min Rain = 0
KHA2 131246Z 17007KT M09/M12 A3026 RMK A01 T10851117  RH  078%=      5-min Rain = 0
KHA2 131247Z 17006KT M09/M12 A3026 RMK A01 T10851117  RH  078%=      5-min Rain = 0
KHA2 131248Z 17006KT M09/M12 A3026 RMK A01 T10851117  RH  078%=      5-min Rain = 0
KHA2 131249Z 17006KT M09/M12 A3026 RMK A01 T10851117  RH  078%=      5-min Rain = 0
KHA2 131250Z 17006KT M09/M12 A3026 RMK A01 T10861117  RH  078%=      5-min Rain = 0
KHA2 131251Z 17006KT M09/M12 A3026 RMK A01 T10861118  RH  078%=      5-min Rain = 0
KHA2 131252Z 17006KT M09/M12 A3026 RMK A01 T10861117  RH  078%=      5-min Rain = 0
KHA2 131253Z 17006KT M09/M12 A3026 RMK A01 T10871118  RH  078%=      5-min Rain = 0
KHA2 131254Z 17006KT M09/M12 A3026 RMK A01 T10871118  RH  079%=      5-min Rain = 0
KHA2 131255Z 17005KT M09/M12 A3026 RMK A01 T10871117  RH  079%=      5-min Rain = 0
KHA2 131256Z 17005KT M09/M12 A3026 RMK A01 T10871116  RH  079%=      5-min Rain = 0
KHA2 131257Z 17005KT M09/M12 A3026 RMK A01 T10861115  RH  080%=      5-min Rain = 0
KHA2 131258Z 17005KT M09/M11 A3026 RMK A01 T10861114  RH  080%=      5-min Rain = 0
KHA2 131259Z 17005KT M09/M11 A3026 RMK A01 T10851112  RH  081%=      5-min Rain = 0
KHA2 131300Z 17005KT M08/M11 A3026 RMK A01 T10841111  RH  081%=      5-min Rain = 0
KHA2 131301Z 17005KT M08/M11 A3026 RMK A01 T10831109  RH  081%=      5-min Rain = 0
KHA2 131302Z 17005KT M08/M11 A3026 RMK A01 T10821107  RH  082%=      5-min Rain = 0
KHA2 131303Z 17005KT M08/M11 A3026 RMK A01 T10801106  RH  082%=      5-min Rain = 0
KHA2 131304Z 17005KT M08/M11 A3027 RMK A01 T10791105  RH  082%=      5-min Rain = 0
KHA2 131305Z 16005KT M08/M10 A3027 RMK A01 T10781104  RH  082%=      5-min Rain = 0
KHA2 131306Z 17005KT M08/M10 A3027 RMK A01 T10771103  RH  081%=      5-min Rain = 0
KHA2 131307Z 16006KT M08/M10 A3027 RMK A01 T10751102  RH  081%=      5-min Rain = 0
KHA2 131308Z 16006KT M08/M10 A3027 RMK A01 T10751102  RH  081%=      5-min Rain = 0
KHA2 131309Z 17006KT M07/M10 A3027 RMK A01 T10741102  RH  080%=      5-min Rain = 0
KHA2 131310Z 17006KT M07/M10 A3027 RMK A01 T10741103  RH  080%=      5-min Rain = 0
KHA2 131311Z 16007KT M07/M10 A3027 RMK A01 T10741103  RH  080%=      5-min Rain = 0
KHA2 131312Z 17007KT M07/M10 A3027 RMK A01 T10741103  RH  080%=      5-min Rain = 0
KHA2 131313Z 17007KT M07/M10 A3027 RMK A01 T10741103  RH  080%=      5-min Rain = 0
KHA2 131314Z 17007KT M07/M10 A3027 RMK A01 T10741104  RH  080%=      5-min Rain = 0
KHA2 131315Z 17007KT M07/M10 A3026 RMK A01 T10741104  RH  079%=      5-min Rain = 0
KHA2 131316Z 17007KT M07/M10 A3027 RMK A01 T10741104  RH  079%=      5-min Rain = 0
KHA2 131317Z 17007KT M07/M10 A3027 RMK A01 T10741104  RH  079%=      5-min Rain = 0
KHA2 131318Z 17007KT M07/M10 A3027 RMK A01 T10741104  RH  079%=      5-min Rain = 0
KHA2 131319Z 16007KT M08/M11 A3026 RMK A01 T10751105  RH  079%=      5-min Rain = 0
KHA2 131320Z 16007KT M08/M11 A3026 RMK A01 T10751106  RH  079%=      5-min Rain = 0
KHA2 131321Z 16007KT M08/M11 A3026 RMK A01 T10751105  RH  079%=      5-min Rain = 0
KHA2 131322Z 16006KT M08/M11 A3026 RMK A01 T10751105  RH  079%=      5-min Rain = 0
KHA2 131323Z 17006KT M08/M11 A3026 RMK A01 T10751105  RH  079%=      5-min Rain = 0
KHA2 131324Z 17006KT M08/M11 A3027 RMK A01 T10751105  RH  080%=      5-min Rain = 0
KHA2 131325Z 17006KT M08/M10 A3027 RMK A01 T10761104  RH  080%=      5-min Rain = 0
KHA2 131326Z 17006KT M08/M11 A3027 RMK A01 T10761105  RH  080%=      5-min Rain = 0
KHA2 131327Z 18006KT M08/M10 A3027 RMK A01 T10761104  RH  080%=      5-min Rain = 0
KHA2 131328Z 18005KT M08/M10 A3027 RMK A01 T10751104  RH  080%=      5-min Rain = 0
KHA2 131329Z 18005KT M08/M10 A3027 RMK A01 T10751104  RH  080%=      5-min Rain = 0
KHA2 131330Z 18005KT M08/M11 A3027 RMK A01 T10751105  RH  079%=      5-min Rain = 0
KHA2 131331Z 18005KT M08/M11 A3027 RMK A01 T10751105  RH  079%=      5-min Rain = 0
KHA2 131332Z 18005KT M08/M11 A3027 RMK A01 T10751105  RH  079%=      5-min Rain = 0
KHA2 131333Z 18005KT M07/M10 A3027 RMK A01 T10741104  RH  079%=      5-min Rain = 0
KHA2 131334Z 18005KT M07/M10 A3027 RMK A01 T10741103  RH  079%=      5-min Rain = 0
KHA2 131335Z 18006KT M07/M10 A3027 RMK A01 T10741102  RH  080%=      5-min Rain = 0
KHA2 131336Z 18006KT M07/M10 A3027 RMK A01 T10731101  RH  080%=      5-min Rain = 0
KHA2 131337Z 18006KT M07/M10 A3027 RMK A01 T10731101  RH  081%=      5-min Rain = 0
KHA2 131338Z 18006KT M07/M10 A3027 RMK A01 T10721100  RH  081%=      5-min Rain = 0
KHA2 131339Z 18006KT M07/M10 A3027 RMK A01 T10721099  RH  081%=      5-min Rain = 0
KHA2 131340Z 18006KT M07/M10 A3027 RMK A01 T10711098  RH  081%=      5-min Rain = 0
KHA2 131341Z 18006KT M07/M10 A3027 RMK A01 T10711098  RH  081%=      5-min Rain = 0
KHA2 131342Z 18007KT M07/M10 A3027 RMK A01 T10711098  RH  081%=      5-min Rain = 0
KHA2 131343Z 18007KT M07/M10 A3027 RMK A01 T10711097  RH  081%=      5-min Rain = 0
KHA2 131344Z 18007KT M07/M10 A3027 RMK A01 T10701096  RH  082%=      5-min Rain = 0
KHA2 131345Z 18007KT M07/M10 A3027 RMK A01 T10691095  RH  082%=      5-min Rain = 0
KHA2 131346Z 18006KT M07/M10 A3027 RMK A01 T10691095  RH  082%=      5-min Rain = 0
KHA2 131347Z 18006KT M07/M09 A3027 RMK A01 T10681094  RH  082%=      5-min Rain = 0
KHA2 131348Z 18006KT M07/M09 A3027 RMK A01 T10671094  RH  081%=      5-min Rain = 0
KHA2 131349Z 18006KT M07/M09 A3028 RMK A01 T10661093  RH  081%=      5-min Rain = 0
KHA2 131350Z 18006KT M07/M09 A3028 RMK A01 T10661093  RH  081%=      5-min Rain = 0
KHA2 131351Z 18006KT M07/M09 A3028 RMK A01 T10661093  RH  081%=      5-min Rain = 0
KHA2 131352Z 18006KT M07/M09 A3028 RMK A01 T10651092  RH  081%=      5-min Rain = 0
KHA2 131353Z 18006KT M07/M09 A3027 RMK A01 T10651092  RH  081%=      5-min Rain = 0
KHA2 131354Z 18007KT M07/M09 A3027 RMK A01 T10651091  RH  081%=      5-min Rain = 0
KHA2 131355Z 17007KT M06/M09 A3027 RMK A01 T10641091  RH  081%=      5-min Rain = 0
KHA2 131356Z 17007KT M06/M09 A3027 RMK A01 T10641091  RH  081%=      5-min Rain = 0
KHA2 131357Z 17007KT M06/M09 A3028 RMK A01 T10641091  RH  081%=      5-min Rain = 0
KHA2 131358Z 17007KT M06/M09 A3028 RMK A01 T10641090  RH  081%=      5-min Rain = 0
KHA2 131359Z 17007KT M06/M09 A3028 RMK A01 T10631090  RH  081%=      5-min Rain = 0
KHA2 131400Z 17007KT M06/M09 A3028 RMK A01 T10631090  RH  081%=      5-min Rain = 0
KHA2 131401Z 17007KT M06/M09 A3028 RMK A01 T10631089  RH  081%=      5-min Rain = 0
KHA2 131402Z 17006KT M06/M09 A3028 RMK A01 T10621089  RH  081%=      5-min Rain = 0
KHA2 131403Z 18006KT M06/M09 A3028 RMK A01 T10611088  RH  081%=      5-min Rain = 0
KHA2 131404Z 18006KT M06/M09 A3028 RMK A01 T10611088  RH  081%=      5-min Rain = 0
KHA2 131405Z 18005KT M06/M09 A3029 RMK A01 T10611088  RH  081%=      5-min Rain = 0
KHA2 131406Z 19005KT M06/M09 A3029 RMK A01 T10601087  RH  081%=      5-min Rain = 0
KHA2 131407Z 20003KT M06/M09 A3029 RMK A01 T10591087  RH  081%=      5-min Rain = 0
KHA2 131408Z 21003KT M06/M09 A3029 RMK A01 T10591087  RH  081%=      5-min Rain = 0
KHA2 131409Z 21003KT M06/M09 A3029 RMK A01 T10581087  RH  080%=      5-min Rain = 0
KHA2 131410Z 23003KT M06/M09 A3029 RMK A01 T10571086  RH  080%=      5-min Rain = 0
KHA2 131411Z 24003KT M06/M09 A3029 RMK A01 T10571087  RH  079%=      5-min Rain = 0
KHA2 131412Z 25002KT M06/M09 A3029 RMK A01 T10571090  RH  077%=      5-min Rain = 0
KHA2 131413Z 24003KT M06/M09 A3029 RMK A01 T10571094  RH  075%=      5-min Rain = 0
KHA2 131414Z 23003KT M06/M10 A3029 RMK A01 T10581096  RH  074%=      5-min Rain = 0
KHA2 131415Z 23003KT M06/M10 A3029 RMK A01 T10581096  RH  075%=      5-min Rain = 0
KHA2 131416Z 23002KT M06/M10 A3029 RMK A01 T10581095  RH  075%=      5-min Rain = 0
KHA2 131417Z 23002KT M06/M10 A3029 RMK A01 T10581095  RH  075%=      5-min Rain = 0
KHA2 131418Z 23002KT M06/M10 A3029 RMK A01 T10581095  RH  075%=      5-min Rain = 0
KHA2 131419Z 23002KT M06/M10 A3029 RMK A01 T10581095  RH  075%=      5-min Rain = 0
KHA2 131420Z 24002KT M06/M09 A3029 RMK A01 T10581094  RH  075%=      5-min Rain = 0
KHA2 131421Z 23002KT M06/M09 A3029 RMK A01 T10571094  RH  076%=      5-min Rain = 0
KHA2 131422Z 21002KT M06/M09 A3029 RMK A01 T10571094  RH  076%=      5-min Rain = 0
KHA2 131423Z 21002KT M06/M09 A3029 RMK A01 T10571093  RH  075%=      5-min Rain = 0
KHA2 131424Z 21002KT M06/M09 A3029 RMK A01 T10561093  RH  076%=      5-min Rain = 0
KHA2 131425Z 20002KT M06/M09 A3029 RMK A01 T10561093  RH  075%=      5-min Rain = 0
KHA2 131426Z 20002KT M06/M09 A3029 RMK A01 T10561093  RH  076%=      5-min Rain = 0
KHA2 131427Z 21002KT M06/M09 A3029 RMK A01 T10551092  RH  076%=      5-min Rain = 0
KHA2 131428Z 21002KT M06/M09 A3029 RMK A01 T10551091  RH  076%=      5-min Rain = 0
KHA2 131429Z 20002KT M06/M09 A3029 RMK A01 T10551091  RH  075%=      5-min Rain = 0
KHA2 131430Z 19003KT M05/M09 A3029 RMK A01 T10541091  RH  075%=      5-min Rain = 0
KHA2 131431Z 19002KT M05/M09 A3029 RMK A01 T10531090  RH  075%=      5-min Rain = 0
KHA2 131432Z 19003KT M05/M09 A3029 RMK A01 T10531089  RH  076%=      5-min Rain = 0
KHA2 131433Z 19003KT M05/M09 A3029 RMK A01 T10521089  RH  075%=      5-min Rain = 0
KHA2 131434Z 19004KT M05/M09 A3029 RMK A01 T10521089  RH  075%=      5-min Rain = 0
KHA2 131435Z 18004KT M05/M09 A3029 RMK A01 T10521088  RH  076%=      5-min Rain = 0
KHA2 131436Z 19004KT M05/M09 A3029 RMK A01 T10511087  RH  076%=      5-min Rain = 0
KHA2 131437Z 19004KT M05/M09 A3029 RMK A01 T10511087  RH  076%=      5-min Rain = 0
KHA2 131438Z 18004KT M05/M09 A3029 RMK A01 T10511087  RH  075%=      5-min Rain = 0
KHA2 131439Z 18005KT M05/M09 A3029 RMK A01 T10501087  RH  075%=      5-min Rain = 0
KHA2 131440Z 19004KT M05/M09 A3029 RMK A01 T10501087  RH  075%=      5-min Rain = 0
KHA2 131441Z 19005KT M05/M08 A3029 RMK A01 T10491084  RH  076%=      5-min Rain = 0
KHA2 131442Z 18005KT M05/M08 A3029 RMK A01 T10481084  RH  076%=      5-min Rain = 0
KHA2 131443Z 18005KT M05/M08 A3029 RMK A01 T10471084  RH  075%=      5-min Rain = 0
KHA2 131444Z 18005KT M05/M09 A3029 RMK A01 T10461085  RH  075%=      5-min Rain = 0
KHA2 131445Z 18005KT M05/M09 A3029 RMK A01 T10471085  RH  074%=      5-min Rain = 0
KHA2 131446Z 19006KT M05/M09 A3029 RMK A01 T10461085  RH  074%=      5-min Rain = 0
KHA2 131447Z 19005KT M05/M08 A3029 RMK A01 T10461084  RH  075%=      5-min Rain = 0
KHA2 131448Z 19005KT M05/M08 A3029 RMK A01 T10451083  RH  074%=      5-min Rain = 0
KHA2 131449Z 20004KT M04/M08 A3029 RMK A01 T10441084  RH  074%=      5-min Rain = 0
KHA2 131450Z 21003KT M04/M08 A3029 RMK A01 T10431083  RH  074%=      5-min Rain = 0
KHA2 131451Z 20005KT M04/M08 A303 RMK A01 T10431083  RH  074%=      5-min Rain = 0
KHA2 131452Z 21003KT M04/M08 A303 RMK A01 T10421082  RH  074%=      5-min Rain = 0
KHA2 131453Z 21004KT M04/M08 A303 RMK A01 T10411081  RH  073%=      5-min Rain = 0
KHA2 131454Z 21004KT M04/M08 A303 RMK A01 T10401080  RH  074%=      5-min Rain = 0
KHA2 131455Z 21004KT M04/M08 A303 RMK A01 T10401080  RH  074%=      5-min Rain = 0
KHA2 131456Z 20004KT M04/M08 A303 RMK A01 T10391079  RH  074%=      5-min Rain = 0
KHA2 131457Z 21003KT M04/M08 A303 RMK A01 T10381078  RH  074%=      5-min Rain = 0
KHA2 131458Z 21003KT M04/M08 A303 RMK A01 T10371078  RH  073%=      5-min Rain = 0
KHA2 131459Z 20003KT M04/M08 A303 RMK A01 T10371078  RH  073%=      5-min Rain = 0
KHA2 131500Z 20004KT M04/M08 A303 RMK A01 T10361078  RH  073%=      5-min Rain = 0
KHA2 131501Z 20005KT M04/M08 A303 RMK A01 T10351077  RH  072%=      5-min Rain = 0
KHA2 131502Z 20005KT M04/M08 A303 RMK A01 T10351077  RH  073%=      5-min Rain = 0
KHA2 131503Z 20004KT M03/M08 A303 RMK A01 T10341077  RH  072%=      5-min Rain = 0
KHA2 131504Z 20004KT M04/M08 A303 RMK A01 T10351077  RH  072%=      5-min Rain = 0
KHA2 131505Z 21004KT M03/M08 A303 RMK A01 T10341077  RH  073%=      5-min Rain = 0
KHA2 131506Z 21004KT M03/M08 A303 RMK A01 T10341076  RH  073%=      5-min Rain = 0
KHA2 131507Z 21005KT M03/M08 A303 RMK A01 T10331075  RH  073%=      5-min Rain = 0
KHA2 131508Z 20006KT M03/M08 A303 RMK A01 T10331075  RH  073%=      5-min Rain = 0
KHA2 131509Z 20005KT M03/M08 A303 RMK A01 T10321075  RH  072%=      5-min Rain = 0
KHA2 131510Z 21005KT M03/M08 A303 RMK A01 T10321076  RH  072%=      5-min Rain = 0
KHA2 131511Z 21005KT M03/M08 A303 RMK A01 T10321075  RH  072%=      5-min Rain = 0
KHA2 131512Z 21004KT M03/M08 A303 RMK A01 T10321075  RH  072%=      5-min Rain = 0
KHA2 131513Z 21005KT M03/M08 A303 RMK A01 T10311075  RH  072%=      5-min Rain = 0
KHA2 131514Z 21004KT M03/M08 A303 RMK A01 T10311075  RH  072%=      5-min Rain = 0
KHA2 131515Z 21003KT M03/M07 A303 RMK A01 T10311074  RH  072%=      5-min Rain = 0
KHA2 131516Z 21004KT M03/M07 A303 RMK A01 T10301073  RH  072%=      5-min Rain = 0
KHA2 131517Z 20005KT M03/M07 A303 RMK A01 T10291073  RH  072%=      5-min Rain = 0
KHA2 131518Z 20004KT M03/M07 A303 RMK A01 T10291072  RH  072%=      5-min Rain = 0
KHA2 131519Z 19004KT M03/M07 A303 RMK A01 T10291072  RH  072%=      5-min Rain = 0
KHA2 131520Z 19004KT M03/M07 A303 RMK A01 T10281071  RH  072%=      5-min Rain = 0
KHA2 131521Z 19004KT M03/M07 A303 RMK A01 T10261069  RH  072%=      5-min Rain = 0
KHA2 131522Z 19004KT M03/M07 A3031 RMK A01 T10261069  RH  072%=      5-min Rain = 0
KHA2 131523Z 19003KT M03/M07 A3031 RMK A01 T10251068  RH  072%=      5-min Rain = 0
KHA2 131524Z 19004KT M02/M07 A3031 RMK A01 T10241068  RH  072%=      5-min Rain = 0
KHA2 131525Z 19004KT M02/M07 A3031 RMK A01 T10231067  RH  072%=      5-min Rain = 0
KHA2 131526Z 18003KT M02/M07 A3031 RMK A01 T10231067  RH  072%=      5-min Rain = 0
KHA2 131527Z 20003KT M02/M07 A3031 RMK A01 T10221066  RH  072%=      5-min Rain = 0
KHA2 131528Z 18004KT M02/M07 A3031 RMK A01 T10211065  RH  072%=      5-min Rain = 0
KHA2 131529Z 19005KT M02/M06 A3031 RMK A01 T10201064  RH  072%=      5-min Rain = 0
KHA2 131530Z 19006KT M02/M06 A3031 RMK A01 T10201063  RH  072%=      5-min Rain = 0
KHA2 131531Z 18007KT M02/M06 A3031 RMK A01 T10191062  RH  072%=      5-min Rain = 0
KHA2 131532Z 18008KT M02/M06 A3031 RMK A01 T10181062  RH  072%=      5-min Rain = 0
KHA2 131533Z 19007KT M02/M06 A3031 RMK A01 T10181061  RH  072%=      5-min Rain = 0
KHA2 131534Z 18005KT M02/M06 A3032 RMK A01 T10161061  RH  072%=      5-min Rain = 0
KHA2 131535Z 19006KT M02/M06 A3031 RMK A01 T10151060  RH  071%=      5-min Rain = 0
KHA2 131536Z 19007KT M01/M06 A3031 RMK A01 T10141061  RH  070%=      5-min Rain = 0
KHA2 131537Z 19007KT M01/M06 A3031 RMK A01 T10141061  RH  070%=      5-min Rain = 0
KHA2 131538Z 19008KT M01/M06 A3031 RMK A01 T10141062  RH  070%=      5-min Rain = 0
KHA2 131539Z 19007KT M01/M06 A3031 RMK A01 T10141062  RH  070%=      5-min Rain = 0
KHA2 131540Z 19007KT M01/M06 A3031 RMK A01 T10141062  RH  070%=      5-min Rain = 0
KHA2 131541Z 19005KT M01/M06 A3031 RMK A01 T10141062  RH  070%=      5-min Rain = 0
KHA2 131542Z 19005KT M01/M06 A3031 RMK A01 T10141062  RH  070%=      5-min Rain = 0
KHA2 131543Z 20006KT M01/M06 A3031 RMK A01 T10131062  RH  070%=      5-min Rain = 0
KHA2 131544Z 20007KT M01/M06 A3031 RMK A01 T10131062  RH  069%=      5-min Rain = 0
KHA2 131545Z 20007KT M01/M06 A3031 RMK A01 T10131063  RH  069%=      5-min Rain = 0
KHA2 131546Z 19008KT M01/M06 A3031 RMK A01 T10131063  RH  069%=      5-min Rain = 0
KHA2 131547Z 19007KT M01/M06 A3031 RMK A01 T10131063  RH  069%=      5-min Rain = 0
KHA2 131548Z 20007KT M01/M06 A3032 RMK A01 T10131063  RH  069%=      5-min Rain = 0
KHA2 131549Z 19008KT M01/M06 A3032 RMK A01 T10131062  RH  069%=      5-min Rain = 0
KHA2 131550Z 19007KT M01/M06 A3032 RMK A01 T10121062  RH  069%=      5-min Rain = 0
KHA2 131551Z 19008KT M01/M06 A3032 RMK A01 T10121062  RH  069%=      5-min Rain = 0
KHA2 131552Z 18007KT M01/M06 A3032 RMK A01 T10121062  RH  069%=      5-min Rain = 0
KHA2 131553Z 19007KT M01/M06 A3032 RMK A01 T10111061  RH  069%=      5-min Rain = 0
KHA2 131554Z 19008KT M01/M06 A3032 RMK A01 T10101061  RH  068%=      5-min Rain = 0
KHA2 131555Z 19008KT M01/M06 A3032 RMK A01 T10101061  RH  068%=      5-min Rain = 0
KHA2 131556Z 18007KT M01/M06 A3032 RMK A01 T10081061  RH  068%=      5-min Rain = 0
KHA2 131557Z 19008KT M01/M06 A3032 RMK A01 T10081061  RH  067%=      5-min Rain = 0
KHA2 131558Z 18008KT M01/M06 A3032 RMK A01 T10061059  RH  067%=      5-min Rain = 0
KHA2 131559Z 19009KT M00/M06 A3032 RMK A01 T10041059  RH  067%=      5-min Rain = 0
KHA2 131600Z 19009KT M00/M06 A3031 RMK A01 T10031059  RH  066%=      5-min Rain = 0
KHA2 131601Z 20009KT M00/M06 A3031 RMK A01 T10031060  RH  066%=      5-min Rain = 0
KHA2 131602Z 19010KT M00/M06 A3031 RMK A01 T10021059  RH  066%=      5-min Rain = 0
KHA2 131603Z 19009KT M00/M06 A3031 RMK A01 T10011059  RH  065%=      5-min Rain = 0
KHA2 131604Z 19010KT M00/M06 A3031 RMK A01 T10011059  RH  065%=      5-min Rain = 0
KHA2 131605Z 19011KT M00/M06 A3031 RMK A01 T10011059  RH  065%=      5-min Rain = 0
KHA2 131606Z 19010KT 00/06 A3031 RMK A01 T00-00-59  RH  065%=      5-min Rain = 0
KHA2 131607Z 19009KT 00/M06 A3032 RMK A01 T00011058  RH  065%=      5-min Rain = 0
KHA2 131608Z 19010KT 00/M06 A3032 RMK A01 T00041056  RH  064%=      5-min Rain = 0
KHA2 131609Z 20010KT 00/M06 A3031 RMK A01 T00041057  RH  064%=      5-min Rain = 0
KHA2 131610Z 18009KT 01/M06 A3031 RMK A01 T00061056  RH  063%=      5-min Rain = 0
KHA2 131611Z 19009KT 01/M06 A3032 RMK A01 T00061057  RH  063%=      5-min Rain = 0
KHA2 131612Z 20010KT 01/M06 A3032 RMK A01 T00061057  RH  063%=      5-min Rain = 0
KHA2 131613Z 19008KT 01/M06 A3032 RMK A01 T00071057  RH  062%=      5-min Rain = 0
KHA2 131614Z 19010KT 01/M06 A3032 RMK A01 T00101055  RH  062%=      5-min Rain = 0
KHA2 131615Z 20010KT 01/M06 A3032 RMK A01 T00101056  RH  061%=      5-min Rain = 0
KHA2 131616Z 20010KT 01/M06 A3032 RMK A01 T00101056  RH  061%=      5-min Rain = 0
KHA2 131617Z 20009KT 01/M06 A3032 RMK A01 T00101057  RH  061%=      5-min Rain = 0
KHA2 131618Z 20009KT 01/M06 A3032 RMK A01 T00101056  RH  061%=      5-min Rain = 0
KHA2 131619Z 20009KT 01/M06 A3032 RMK A01 T00121055  RH  061%=      5-min Rain = 0
KHA2 131620Z 21011KT 01/M06 A3032 RMK A01 T00131055  RH  061%=      5-min Rain = 0
KHA2 131621Z 20009KT 01/M06 A3032 RMK A01 T00131056  RH  060%=      5-min Rain = 0
KHA2 131622Z 21010KT 01/M06 A3032 RMK A01 T00131056  RH  060%=      5-min Rain = 0
KHA2 131623Z 21010KT 01/M06 A3032 RMK A01 T00131055  RH  060%=      5-min Rain = 0
KHA2 131624Z 21010KT 02/M05 A3032 RMK A01 T00151054  RH  060%=      5-min Rain = 0
KHA2 131625Z 20009KT 02/M05 A3032 RMK A01 T00161054  RH  060%=      5-min Rain = 0
KHA2 131626Z 20009KT 02/M06 A3032 RMK A01 T00161055  RH  059%=      5-min Rain = 0
KHA2 131627Z 21009KT 02/M06 A3032 RMK A01 T00151056  RH  059%=      5-min Rain = 0
KHA2 131628Z 21008KT 01/M06 A3032 RMK A01 T00131057  RH  059%=      5-min Rain = 0
KHA2 131629Z 22007KT 01/M06 A3032 RMK A01 T00141056  RH  060%=      5-min Rain = 0
KHA2 131630Z 21008KT 02/M05 A3032 RMK A01 T00161054  RH  060%=      5-min Rain = 0
KHA2 131631Z 19009KT 02/M05 A3032 RMK A01 T00211052  RH  059%=      5-min Rain = 0
KHA2 131632Z 20010KT 02/M06 A3032 RMK A01 T00191056  RH  058%=      5-min Rain = 0
KHA2 131633Z 20010KT 02/M06 A3032 RMK A01 T00181056  RH  058%=      5-min Rain = 0
KHA2 131634Z 22007KT 02/M06 A3032 RMK A01 T00181055  RH  058%=      5-min Rain = 0
KHA2 131635Z 21009KT 02/M05 A3032 RMK A01 T00191053  RH  059%=      5-min Rain = 0
KHA2 131636Z 21008KT 02/M05 A3032 RMK A01 T00211053  RH  058%=      5-min Rain = 0
KHA2 131637Z 21008KT 02/M06 A3032 RMK A01 T00191056  RH  057%=      5-min Rain = 0
KHA2 131638Z 21007KT 02/M06 A3032 RMK A01 T00181056  RH  058%=      5-min Rain = 0
KHA2 131639Z 21011KT 02/M05 A3032 RMK A01 T00201053  RH  058%=      5-min Rain = 0
KHA2 131640Z 21009KT 02/M05 A3032 RMK A01 T00211053  RH  058%=      5-min Rain = 0
KHA2 131641Z 21008KT 02/M06 A3033 RMK A01 T00191055  RH  058%=      5-min Rain = 0
KHA2 131642Z 21009KT 02/M06 A3032 RMK A01 T00191055  RH  058%=      5-min Rain = 0
KHA2 131643Z 20009KT 02/M05 A3032 RMK A01 T00201054  RH  058%=      5-min Rain = 0
KHA2 131644Z 20009KT 02/M05 A3032 RMK A01 T00211054  RH  057%=      5-min Rain = 0
KHA2 131645Z 21010KT 02/M06 A3033 RMK A01 T00201055  RH  057%=      5-min Rain = 0
KHA2 131646Z 21010KT 02/M06 A3033 RMK A01 T00191056  RH  058%=      5-min Rain = 0
KHA2 131647Z 22009KT 02/M05 A3032 RMK A01 T00221052  RH  058%=      5-min Rain = 0
KHA2 131648Z 21009KT 02/M05 A3032 RMK A01 T00231053  RH  057%=      5-min Rain = 0
KHA2 131649Z 22008KT 02/M06 A3033 RMK A01 T00221055  RH  057%=      5-min Rain = 0
KHA2 131650Z 22009KT 02/M06 A3033 RMK A01 T00211055  RH  057%=      5-min Rain = 0
KHA2 131651Z 21008KT 02/M06 A3033 RMK A01 T00211055  RH  057%=      5-min Rain = 0
KHA2 131652Z 21010KT 02/M05 A3032 RMK A01 T00211054  RH  057%=      5-min Rain = 0
KHA2 131653Z 22008KT 02/M06 A3032 RMK A01 T00211055  RH  057%=      5-min Rain = 0
KHA2 131654Z 23008KT 02/M06 A3032 RMK A01 T00201056  RH  057%=      5-min Rain = 0
KHA2 131655Z 22007KT 02/M06 A3032 RMK A01 T00171057  RH  058%=      5-min Rain = 0
KHA2 131656Z 20009KT 02/M06 A3032 RMK A01 T00181056  RH  058%=      5-min Rain = 0
KHA2 131657Z 19008KT 02/M06 A3032 RMK A01 T00181057  RH  057%=      5-min Rain = 0
KHA2 131658Z 22007KT 02/M06 A3032 RMK A01 T00181057  RH  057%=      5-min Rain = 0
KHA2 131659Z 21007KT 02/M06 A3032 RMK A01 T00191056  RH  057%=      5-min Rain = 0
KHA2 131700Z 20008KT 02/M06 A3032 RMK A01 T00191057  RH  057%=      5-min Rain = 0
KHA2 131701Z 20007KT 02/M06 A3032 RMK A01 T00191058  RH  057%=      5-min Rain = 0
KHA2 131702Z 21008KT 02/M06 A3032 RMK A01 T00201057  RH  057%=      5-min Rain = 0
KHA2 131703Z 22007KT 02/M06 A3032 RMK A01 T00201057  RH  057%=      5-min Rain = 0
KHA2 131704Z 21008KT 02/M06 A3032 RMK A01 T00191057  RH  057%=      5-min Rain = 0
KHA2 131705Z 21009KT 02/M06 A3032 RMK A01 T00211055  RH  057%=      5-min Rain = 0
KHA2 131706Z 23009KT 02/M06 A3032 RMK A01 T00211056  RH  057%=      5-min Rain = 0
KHA2 131707Z 22008KT 02/M06 A3032 RMK A01 T00201056  RH  057%=      5-min Rain = 0
KHA2 131708Z 21008KT 02/M06 A3032 RMK A01 T00211055  RH  057%=      5-min Rain = 0
KHA2 131709Z 23008KT 02/M06 A3032 RMK A01 T00231055  RH  056%=      5-min Rain = 0
KHA2 131710Z 23008KT 02/M06 A3032 RMK A01 T00231056  RH  056%=      5-min Rain = 0
KHA2 131711Z 22009KT 02/M06 A3032 RMK A01 T00211057  RH  056%=      5-min Rain = 0
KHA2 131712Z 22008KT 02/M06 A3032 RMK A01 T00211056  RH  057%=      5-min Rain = 0
KHA2 131713Z 22008KT 02/M06 A3032 RMK A01 T00201056  RH  057%=      5-min Rain = 0
KHA2 131714Z 23009KT 02/M06 A3032 RMK A01 T00211055  RH  057%=      5-min Rain = 0
KHA2 131715Z 24010KT 02/M06 A3032 RMK A01 T00221055  RH  057%=      5-min Rain = 0
KHA2 131716Z 22010KT 02/M06 A3032 RMK A01 T00221055  RH  057%=      5-min Rain = 0
KHA2 131717Z 21010KT 02/M05 A3032 RMK A01 T00221054  RH  057%=      5-min Rain = 0
KHA2 131718Z 21010KT 02/M05 A3032 RMK A01 T00241053  RH  057%=      5-min Rain = 0
KHA2 131719Z 21010KT 03/M05 A3032 RMK A01 T00251053  RH  057%=      5-min Rain = 0
KHA2 131720Z 22010KT 03/M05 A3032 RMK A01 T00271052  RH  056%=      5-min Rain = 0
KHA2 131721Z 22008KT 03/M05 A3032 RMK A01 T00271053  RH  056%=      5-min Rain = 0
KHA2 131722Z 22008KT 03/M05 A3032 RMK A01 T00291051  RH  056%=      5-min Rain = 0
KHA2 131723Z 22009KT 03/M05 A3032 RMK A01 T00291053  RH  055%=      5-min Rain = 0
KHA2 131724Z 21009KT 03/M05 A3032 RMK A01 T00291053  RH  055%=      5-min Rain = 0
KHA2 131725Z 21008KT 03/M05 A3032 RMK A01 T00291053  RH  055%=      5-min Rain = 0
KHA2 131726Z 21011KT 03/M05 A3032 RMK A01 T00291053  RH  055%=      5-min Rain = 0
KHA2 131727Z 21010KT 03/M05 A3032 RMK A01 T00291053  RH  055%=      5-min Rain = 0
KHA2 131728Z 21009KT 03/M05 A3032 RMK A01 T00281052  RH  055%=      5-min Rain = 0
KHA2 131729Z 20009KT 03/M05 A3032 RMK A01 T00301051  RH  055%=      5-min Rain = 0
KHA2 131730Z 20010KT 03/M05 A3032 RMK A01 T00321050  RH  055%=      5-min Rain = 0
KHA2 131731Z 20011KT 03/M05 A3032 RMK A01 T00341050  RH  054%=      5-min Rain = 0
KHA2 131732Z 21010KT 03/M05 A3032 RMK A01 T00341050  RH  054%=      5-min Rain = 0
KHA2 131733Z 21011KT 04/M05 A3032 RMK A01 T00351050  RH  054%=      5-min Rain = 0
KHA2 131734Z 22010KT 04/M05 A3032 RMK A01 T00361048  RH  054%=      5-min Rain = 0
KHA2 131735Z 22010KT 04/M05 A3032 RMK A01 T00401047  RH  053%=      5-min Rain = 0
KHA2 131736Z 22009KT 04/M05 A3032 RMK A01 T00381051  RH  052%=      5-min Rain = 0
KHA2 131737Z 22011KT 04/M05 A3032 RMK A01 T00371051  RH  053%=      5-min Rain = 0
KHA2 131738Z 22009KT 04/M05 A3032 RMK A01 T00371051  RH  053%=      5-min Rain = 0
KHA2 131739Z 22011KT 04/M05 A3031 RMK A01 T00371051  RH  053%=      5-min Rain = 0
KHA2 131740Z 21012KT 04/M05 A3031 RMK A01 T00371050  RH  053%=      5-min Rain = 0
KHA2 131741Z 21011KT 04/M05 A3031 RMK A01 T00391047  RH  053%=      5-min Rain = 0
KHA2 131742Z 22011KT 04/M05 A3031 RMK A01 T00411047  RH  053%=      5-min Rain = 0
KHA2 131743Z 21012KT 04/M05 A3031 RMK A01 T00391050  RH  052%=      5-min Rain = 0
KHA2 131744Z 20012KT 04/M05 A3031 RMK A01 T00391049  RH  053%=      5-min Rain = 0
KHA2 131745Z 20013KT 04/M05 A3031 RMK A01 T00421047  RH  053%=      5-min Rain = 0
KHA2 131746Z 20010KT 04/M05 A3031 RMK A01 T00421047  RH  052%=      5-min Rain = 0
KHA2 131747Z 21010KT 05/M05 A3031 RMK A01 T00451045  RH  052%=      5-min Rain = 0
KHA2 131748Z 20009KT 05/M05 A3031 RMK A01 T00461046  RH  051%=      5-min Rain = 0
KHA2 131749Z 21011KT 05/M04 A3031 RMK A01 T00481044  RH  051%=      5-min Rain = 0
KHA2 131750Z 20011KT 05/M04 A3031 RMK A01 T00501044  RH  051%=      5-min Rain = 0
KHA2 131751Z 20012KT 05/M05 A303 RMK A01 T00481046  RH  051%=      5-min Rain = 0
KHA2 131752Z 20009KT 05/M05 A303 RMK A01 T00461046  RH  051%=      5-min Rain = 0
KHA2 131753Z 20011KT 05/M05 A303 RMK A01 T00471045  RH  051%=      5-min Rain = 0
KHA2 131754Z 21011KT 05/M05 A303 RMK A01 T00481045  RH  051%=      5-min Rain = 0
KHA2 131755Z 21012KT 05/M04 A303 RMK A01 T00481044  RH  051%=      5-min Rain = 0
KHA2 131756Z 20010KT 05/M04 A303 RMK A01 T00491044  RH  051%=      5-min Rain = 0
KHA2 131757Z 20010KT 05/M04 A303 RMK A01 T00501044  RH  051%=      5-min Rain = 0
KHA2 131758Z 20008KT 05/M04 A303 RMK A01 T00511044  RH  050%=      5-min Rain = 0
KHA2 131759Z 22008KT 05/M05 A303 RMK A01 T00501045  RH  050%=      5-min Rain = 0
KHA2 131800Z 22010KT 05/M04 A303 RMK A01 T00501044  RH  051%=      5-min Rain = 0
KHA2 131801Z 21009KT 05/M04 A303 RMK A01 T00531042  RH  050%=      5-min Rain = 0
KHA2 131802Z 20009KT 06/M04 A303 RMK A01 T00571042  RH  049%=      5-min Rain = 0
KHA2 131803Z 20010KT 06/M04 A303 RMK A01 T00571043  RH  049%=      5-min Rain = 0
KHA2 131804Z 21009KT 06/M05 A303 RMK A01 T00551045  RH  048%=      5-min Rain = 0
KHA2 131805Z 21008KT 05/M05 A303 RMK A01 T00541045  RH  049%=      5-min Rain = 0
KHA2 131806Z 21011KT 06/M04 A303 RMK A01 T00561042  RH  050%=      5-min Rain = 0
KHA2 131807Z 22012KT 06/M04 A303 RMK A01 T00591040  RH  049%=      5-min Rain = 0
KHA2 131808Z 22012KT 06/M04 A303 RMK A01 T00591042  RH  048%=      5-min Rain = 0
KHA2 131809Z 20013KT 06/M04 A3029 RMK A01 T00591041  RH  049%=      5-min Rain = 0
KHA2 131810Z 20013KT 06/M04 A303 RMK A01 T00611041  RH  048%=      5-min Rain = 0
KHA2 131811Z 20012KT 06/M04 A3029 RMK A01 T00611042  RH  048%=      5-min Rain = 0
KHA2 131812Z 20014KT 06/M04 A3029 RMK A01 T00601041  RH  048%=      5-min Rain = 0
KHA2 131813Z 22012KT 06/M04 A3029 RMK A01 T00621040  RH  048%=      5-min Rain = 0
KHA2 131814Z 22012KT 06/M04 A3029 RMK A01 T00591042  RH  048%=      5-min Rain = 0
KHA2 131815Z 21012KT 06/M04 A3029 RMK A01 T00611039  RH  049%=      5-min Rain = 0
KHA2 131816Z 21012KT 07/M04 A3029 RMK A01 T00651036  RH  048%=      5-min Rain = 0
KHA2 131817Z 21013KT 07/M04 A3029 RMK A01 T00681037  RH  047%=      5-min Rain = 0
KHA2 131818Z 22012KT 07/M04 A3029 RMK A01 T00681039  RH  046%=      5-min Rain = 0
KHA2 131819Z 21010KT 07/M04 A3029 RMK A01 T00671041  RH  046%=      5-min Rain = 0
KHA2 131820Z 20011KT 07/M04 A3028 RMK A01 T00661040  RH  047%=      5-min Rain = 0
KHA2 131821Z 20013KT 07/M04 A3028 RMK A01 T00691037  RH  047%=      5-min Rain = 0
KHA2 131822Z 21012KT 07/M04 A3028 RMK A01 T00681039  RH  046%=      5-min Rain = 0
KHA2 131823Z 21010KT 07/M04 A3028 RMK A01 T00671040  RH  046%=      5-min Rain = 0
KHA2 131824Z 21012KT 07/M04 A3028 RMK A01 T00681039  RH  046%=      5-min Rain = 0
KHA2 131825Z 21010KT 07/M04 A3028 RMK A01 T00701039  RH  046%=      5-min Rain = 0
KHA2 131826Z 22013KT 07/M04 A3028 RMK A01 T00701039  RH  046%=      5-min Rain = 0
KHA2 131827Z 23012KT 07/M04 A3028 RMK A01 T00701039  RH  046%=      5-min Rain = 0
KHA2 131828Z 23010KT 07/M04 A3028 RMK A01 T00711038  RH  046%=      5-min Rain = 0
KHA2 131829Z 23011KT 07/M04 A3028 RMK A01 T00721037  RH  046%=      5-min Rain = 0
KHA2 131830Z 23011KT 08/M04 A3028 RMK A01 T00761036  RH  045%=      5-min Rain = 0
KHA2 131831Z 22014KT 08/M04 A3028 RMK A01 T00751038  RH  045%=      5-min Rain = 0
KHA2 131832Z 22012KT 07/M04 A3028 RMK A01 T00731038  RH  045%=      5-min Rain = 0
KHA2 131833Z 20011KT 07/M04 A3028 RMK A01 T00731037  RH  046%=      5-min Rain = 0
KHA2 131834Z 20012KT 08/M04 A3028 RMK A01 T00761036  RH  045%=      5-min Rain = 0
KHA2 131835Z 22012KT 08/M04 A3028 RMK A01 T00761037  RH  044%=      5-min Rain = 0
KHA2 131836Z 22012KT 08/M04 A3028 RMK A01 T00761037  RH  045%=      5-min Rain = 0
KHA2 131837Z 23010KT 07/M04 A3028 RMK A01 T00741038  RH  045%=      5-min Rain = 0
KHA2 131838Z 22012KT 08/M04 A3028 RMK A01 T00751035  RH  046%=      5-min Rain = 0
KHA2 131839Z 22011KT 08/M04 A3028 RMK A01 T00761035  RH  045%=      5-min Rain = 0
KHA2 131840Z 22009KT 08/M04 A3028 RMK A01 T00781035  RH  045%=      5-min Rain = 0
KHA2 131841Z 20012G17KT 08/M03 A3028 RMK A01 T00781034  RH  045%=      5-min Rain = 0
KHA2 131842Z 22011KT 08/M03 A3028 RMK A01 T00821034  RH  044%=      5-min Rain = 0
KHA2 131843Z 23010KT 08/M04 A3028 RMK A01 T00801037  RH  043%=      5-min Rain = 0
KHA2 131844Z 24010KT 08/M04 A3028 RMK A01 T00791036  RH  044%=      5-min Rain = 0
KHA2 131845Z 23012KT 08/M04 A3028 RMK A01 T00801035  RH  044%=      5-min Rain = 0
KHA2 131846Z 22011KT 08/M04 A3028 RMK A01 T00811035  RH  044%=      5-min Rain = 0
KHA2 131847Z 22010KT 08/M04 A3028 RMK A01 T00811036  RH  043%=      5-min Rain = 0
KHA2 131848Z 23009KT 08/M04 A3027 RMK A01 T00811036  RH  044%=      5-min Rain = 0
KHA2 131849Z 21010KT 08/M04 A3027 RMK A01 T00811036  RH  044%=      5-min Rain = 0
KHA2 131850Z 21010KT 08/M04 A3027 RMK A01 T00811035  RH  044%=      5-min Rain = 0
KHA2 131851Z 22011G16KT 09/M03 A3027 RMK A01 T00851031  RH  044%=      5-min Rain = 0
KHA2 131852Z 22011KT 09/M03 A3027 RMK A01 T00901032  RH  042%=      5-min Rain = 0
KHA2 131853Z 22008KT 09/M04 A3027 RMK A01 T00871035  RH  042%=      5-min Rain = 0
KHA2 131854Z 22009KT 09/M04 A3027 RMK A01 T00851035  RH  043%=      5-min Rain = 0
KHA2 131855Z 23010KT 09/M03 A3027 RMK A01 T00861033  RH  043%=      5-min Rain = 0
KHA2 131856Z 23010KT 09/M03 A3027 RMK A01 T00871034  RH  042%=      5-min Rain = 0
KHA2 131857Z 21009KT 09/M03 A3027 RMK A01 T00871034  RH  042%=      5-min Rain = 0
KHA2 131858Z 21010KT 09/M03 A3027 RMK A01 T00901032  RH  042%=      5-min Rain = 0
KHA2 131859Z 21011KT 09/M03 A3026 RMK A01 T00911033  RH  041%=      5-min Rain = 0
KHA2 131900Z 22009KT 09/M03 A3026 RMK A01 T00901034  RH  042%=      5-min Rain = 0
KHA2 131901Z 23007KT 09/M03 A3026 RMK A01 T00911033  RH  042%=      5-min Rain = 0
KHA2 131902Z 22009KT 09/M03 A3026 RMK A01 T00921033  RH  041%=      5-min Rain = 0
KHA2 131903Z 23011KT 09/M03 A3026 RMK A01 T00931031  RH  041%=      5-min Rain = 0
KHA2 131904Z 24011KT 09/M03 A3026 RMK A01 T00931033  RH  041%=      5-min Rain = 0
KHA2 131905Z 24010KT 09/M03 A3026 RMK A01 T00931033  RH  041%=      5-min Rain = 0
KHA2 131906Z 23012KT 09/M03 A3026 RMK A01 T00931032  RH  041%=      5-min Rain = 0
KHA2 131907Z 22010KT 09/M03 A3026 RMK A01 T00941033  RH  041%=      5-min Rain = 0
KHA2 131908Z 22013KT 09/M04 A3026 RMK A01 T00911035  RH  041%=      5-min Rain = 0
KHA2 131909Z 23010KT 09/M03 A3026 RMK A01 T00911034  RH  041%=      5-min Rain = 0
KHA2 131910Z 23010KT 09/M03 A3026 RMK A01 T00921032  RH  041%=      5-min Rain = 0
KHA2 131911Z 22008KT 09/M03 A3026 RMK A01 T00921033  RH  041%=      5-min Rain = 0
KHA2 131912Z 23011KT 10/M03 A3026 RMK A01 T00951030  RH  041%=      5-min Rain = 0
KHA2 131913Z 22012KT 10/M03 A3026 RMK A01 T00961032  RH  040%=      5-min Rain = 0
KHA2 131914Z 21010KT 10/M03 A3026 RMK A01 T00951034  RH  040%=      5-min Rain = 0
KHA2 131915Z 22008KT 10/M03 A3026 RMK A01 T00961033  RH  040%=      5-min Rain = 0
KHA2 131916Z 22007KT 10/M03 A3026 RMK A01 T00961033  RH  040%=      5-min Rain = 0
KHA2 131917Z 23011KT 10/M03 A3026 RMK A01 T00971032  RH  040%=      5-min Rain = 0
KHA2 131918Z 24012KT 10/M03 A3025 RMK A01 T00991031  RH  040%=      5-min Rain = 0
KHA2 131919Z 23011KT 10/M03 A3025 RMK A01 T00991032  RH  040%=      5-min Rain = 0
KHA2 131920Z 21009KT 10/M03 A3025 RMK A01 T00971033  RH  040%=      5-min Rain = 0
KHA2 131921Z 21007KT 10/M03 A3025 RMK A01 T00991031  RH  040%=      5-min Rain = 0
KHA2 131922Z 21007KT 10/M03 A3025 RMK A01 T01011030  RH  040%=      5-min Rain = 0
KHA2 131923Z 24006KT 10/M03 A3025 RMK A01 T01031030  RH  039%=      5-min Rain = 0
KHA2 131924Z 22009KT 11/M03 A3025 RMK A01 T01051030  RH  039%=      5-min Rain = 0
KHA2 131925Z 21012KT 11/M03 A3025 RMK A01 T01061030  RH  039%=      5-min Rain = 0
KHA2 131926Z 21011KT 11/M03 A3025 RMK A01 T01051031  RH  038%=      5-min Rain = 0
KHA2 131927Z 21010KT 11/M03 A3025 RMK A01 T01051031  RH  038%=      5-min Rain = 0
KHA2 131928Z 23008KT 11/M03 A3025 RMK A01 T01051031  RH  038%=      5-min Rain = 0
KHA2 131929Z 21010KT 11/M03 A3025 RMK A01 T01051030  RH  039%=      5-min Rain = 0
KHA2 131930Z 20012KT 11/M03 A3025 RMK A01 T01071029  RH  038%=      5-min Rain = 0
KHA2 131931Z 20009KT 11/M03 A3025 RMK A01 T01091029  RH  038%=      5-min Rain = 0
KHA2 131932Z 19009KT 11/M03 A3025 RMK A01 T01091029  RH  038%=      5-min Rain = 0
KHA2 131933Z 19008KT 11/M03 A3024 RMK A01 T01111030  RH  037%=      5-min Rain = 0
KHA2 131934Z 21010KT 11/M03 A3024 RMK A01 T01121028  RH  037%=      5-min Rain = 0
KHA2 131935Z 22011KT 11/M03 A3024 RMK A01 T01131029  RH  037%=      5-min Rain = 0
KHA2 131936Z 22010KT 11/M03 A3024 RMK A01 T01111030  RH  037%=      5-min Rain = 0
KHA2 131937Z 22010KT 11/M03 A3024 RMK A01 T01101030  RH  037%=      5-min Rain = 0
KHA2 131938Z 21013KT 11/M03 A3024 RMK A01 T01121028  RH  037%=      5-min Rain = 0
KHA2 131939Z 21012KT 12/M03 A3024 RMK A01 T01151029  RH  037%=      5-min Rain = 0
KHA2 131940Z 21009KT 11/M03 A3024 RMK A01 T01141030  RH  036%=      5-min Rain = 0
KHA2 131941Z 22008KT 11/M03 A3024 RMK A01 T01141029  RH  037%=      5-min Rain = 0
KHA2 131942Z 21010KT 12/M03 A3024 RMK A01 T01161028  RH  036%=      5-min Rain = 0
KHA2 131943Z 22009KT 12/M03 A3024 RMK A01 T01161029  RH  036%=      5-min Rain = 0
KHA2 131944Z 20010KT 12/M03 A3024 RMK A01 T01151029  RH  036%=      5-min Rain = 0
KHA2 131945Z 20010KT 12/M03 A3023 RMK A01 T01171027  RH  036%=      5-min Rain = 0
KHA2 131946Z 20010KT 12/M03 A3023 RMK A01 T01201027  RH  036%=      5-min Rain = 0
KHA2 131947Z 22010KT 12/M03 A3023 RMK A01 T01201028  RH  035%=      5-min Rain = 0
KHA2 131948Z 20011KT 12/M03 A3023 RMK A01 T01211027  RH  035%=      5-min Rain = 0
KHA2 131949Z 19012KT 12/M03 A3023 RMK A01 T01221029  RH  035%=      5-min Rain = 0
KHA2 131950Z 20009KT 12/M03 A3023 RMK A01 T01191030  RH  035%=      5-min Rain = 0
KHA2 131951Z 23011KT 12/M03 A3023 RMK A01 T01211027  RH  036%=      5-min Rain = 0
KHA2 131952Z 22011KT 12/M03 A3023 RMK A01 T01231028  RH  035%=      5-min Rain = 0
KHA2 131953Z 20011KT 12/M03 A3023 RMK A01 T01201030  RH  035%=      5-min Rain = 0
KHA2 131954Z 20010KT 12/M03 A3023 RMK A01 T01181029  RH  036%=      5-min Rain = 0
KHA2 131955Z 20010KT 12/M03 A3023 RMK A01 T01191028  RH  036%=      5-min Rain = 0
KHA2 131956Z 20011KT 12/M03 A3023 RMK A01 T01231027  RH  035%=      5-min Rain = 0
KHA2 131957Z 21009KT 12/M03 A3024 RMK A01 T01241028  RH  035%=      5-min Rain = 0
KHA2 131958Z 22013KT 13/M03 A3024 RMK A01 T01261026  RH  034%=      5-min Rain = 0
KHA2 131959Z 21009KT 12/M03 A3024 RMK A01 T01241029  RH  034%=      5-min Rain = 0
KHA2 132000Z 23010KT 12/M03 A3024 RMK A01 T01241027  RH  035%=      5-min Rain = 0
KHA2 132001Z 22011KT 12/M03 A3024 RMK A01 T01241028  RH  035%=      5-min Rain = 0
KHA2 132002Z 22010KT 12/M03 A3024 RMK A01 T01231027  RH  035%=      5-min Rain = 0
KHA2 132003Z 20014KT 13/M03 A3023 RMK A01 T01261026  RH  035%=      5-min Rain = 0
KHA2 132004Z 20011KT 13/M03 A3024 RMK A01 T01271027  RH  034%=      5-min Rain = 0
KHA2 132005Z 22012KT 13/M03 A3023 RMK A01 T01291027  RH  034%=      5-min Rain = 0
KHA2 132006Z 21011KT 13/M03 A3023 RMK A01 T01251029  RH  034%=      5-min Rain = 0
KHA2 132007Z 20013KT 13/M03 A3023 RMK A01 T01251028  RH  034%=      5-min Rain = 0
KHA2 132008Z 20010KT 13/M03 A3023 RMK A01 T01271027  RH  034%=      5-min Rain = 0
KHA2 132009Z 19011KT 13/M03 A3023 RMK A01 T01281027  RH  034%=      5-min Rain = 0
KHA2 132010Z 19013KT 13/M03 A3023 RMK A01 T01311026  RH  033%=      5-min Rain = 0
KHA2 132011Z 19014KT 13/M03 A3023 RMK A01 T01311028  RH  033%=      5-min Rain = 0
KHA2 132012Z 19010KT 13/M03 A3023 RMK A01 T01311027  RH  033%=      5-min Rain = 0
KHA2 132013Z 20010KT 13/M03 A3023 RMK A01 T01291029  RH  033%=      5-min Rain = 0
KHA2 132014Z 22013KT 13/M03 A3023 RMK A01 T01281028  RH  034%=      5-min Rain = 0
KHA2 132015Z 22011KT 13/M03 A3023 RMK A01 T01331025  RH  033%=      5-min Rain = 0
KHA2 132016Z 23008KT 13/M03 A3023 RMK A01 T01321029  RH  033%=      5-min Rain = 0
KHA2 132017Z 21010KT 13/M03 A3023 RMK A01 T01311027  RH  033%=      5-min Rain = 0
KHA2 132018Z 22012KT 13/M03 A3023 RMK A01 T01321028  RH  033%=      5-min Rain = 0
KHA2 132019Z 21011KT 13/M03 A3022 RMK A01 T01321028  RH  033%=      5-min Rain = 0
KHA2 132020Z 23012KT 14/M03 A3022 RMK A01 T01361026  RH  033%=      5-min Rain = 0
KHA2 132021Z 23010KT 14/M03 A3022 RMK A01 T01351028  RH  032%=      5-min Rain = 0
KHA2 132022Z 21008KT 13/M03 A3022 RMK A01 T01311030  RH  033%=      5-min Rain = 0
KHA2 132023Z 19012KT 13/M03 A3022 RMK A01 T01311028  RH  033%=      5-min Rain = 0
KHA2 132024Z 20010KT 13/M03 A3022 RMK A01 T01331028  RH  033%=      5-min Rain = 0
KHA2 132025Z 19007KT 13/M03 A3022 RMK A01 T01331028  RH  033%=      5-min Rain = 0
KHA2 132026Z 20009G14KT 14/M03 A3022 RMK A01 T01351027  RH  032%=      5-min Rain = 0
KHA2 132027Z 21014KT 14/M03 A3022 RMK A01 T01381027  RH  032%=      5-min Rain = 0
KHA2 132028Z 21011KT 14/M03 A3022 RMK A01 T01361029  RH  032%=      5-min Rain = 0
KHA2 132029Z 19010KT 13/M03 A3022 RMK A01 T01331029  RH  032%=      5-min Rain = 0
KHA2 132030Z 20010KT 14/M03 A3022 RMK A01 T01351028  RH  032%=      5-min Rain = 0
KHA2 132031Z 21013KT 14/M03 A3022 RMK A01 T01351028  RH  032%=      5-min Rain = 0
KHA2 132032Z 19013KT 14/M03 A3022 RMK A01 T01361029  RH  032%=      5-min Rain = 0
KHA2 132033Z 18011KT 14/M03 A3022 RMK A01 T01381029  RH  031%=      5-min Rain = 0
KHA2 132034Z 18008KT 14/M03 A3022 RMK A01 T01361031  RH  031%=      5-min Rain = 0
KHA2 132035Z 20011KT 14/M03 A3022 RMK A01 T01381028  RH  032%=      5-min Rain = 0
KHA2 132036Z 20012KT 14/M03 A3022 RMK A01 T01391029  RH  031%=      5-min Rain = 0
KHA2 132037Z 21011KT 14/M03 A3022 RMK A01 T01371030  RH  031%=      5-min Rain = 0
KHA2 132038Z 21009KT 14/M03 A3022 RMK A01 T01361030  RH  032%=      5-min Rain = 0
KHA2 132039Z 19008KT 14/M03 A3022 RMK A01 T01381028  RH  032%=      5-min Rain = 0
KHA2 132040Z 22010KT 14/M03 A3022 RMK A01 T01391029  RH  031%=      5-min Rain = 0
KHA2 132041Z 19011KT 14/M03 A3022 RMK A01 T01381030  RH  031%=      5-min Rain = 0
KHA2 132042Z 18011KT 14/M03 A3022 RMK A01 T01391030  RH  031%=      5-min Rain = 0
KHA2 132043Z 19011KT 14/M03 A3022 RMK A01 T01351031  RH  031%=      5-min Rain = 0
KHA2 132044Z 19010KT 14/M03 A3022 RMK A01 T01351030  RH  032%=      5-min Rain = 0
KHA2 132045Z 18009KT 14/M03 A3022 RMK A01 T01351029  RH  032%=      5-min Rain = 0
KHA2 132046Z 19012KT 14/M03 A3022 RMK A01 T01391027  RH  031%=      5-min Rain = 0
KHA2 132047Z 19010KT 14/M03 A3022 RMK A01 T01421028  RH  031%=      5-min Rain = 0
KHA2 132048Z 20013KT 14/M03 A3022 RMK A01 T01431029  RH  030%=      5-min Rain = 0
KHA2 132049Z 21012KT 14/M03 A3022 RMK A01 T01411031  RH  030%=      5-min Rain = 0
KHA2 132050Z 18013KT 14/M03 A3022 RMK A01 T01401030  RH  031%=      5-min Rain = 0
KHA2 132051Z 19010KT 14/M03 A3022 RMK A01 T01381031  RH  031%=      5-min Rain = 0
KHA2 132052Z 21011KT 14/M03 A3022 RMK A01 T01361031  RH  031%=      5-min Rain = 0
KHA2 132053Z 19010KT 14/M03 A3022 RMK A01 T01381029  RH  031%=      5-min Rain = 0
KHA2 132054Z 18011KT 14/M03 A3022 RMK A01 T01431029  RH  030%=      5-min Rain = 0
KHA2 132055Z 18010KT 14/M03 A3022 RMK A01 T01431031  RH  030%=      5-min Rain = 0
KHA2 132056Z 21012KT 14/M03 A3022 RMK A01 T01421031  RH  030%=      5-min Rain = 0
KHA2 132057Z 21009KT 14/M03 A3022 RMK A01 T01411032  RH  030%=      5-min Rain = 0
KHA2 132058Z 21011KT 14/M03 A3022 RMK A01 T01391031  RH  031%=      5-min Rain = 0
KHA2 132059Z 20013KT 14/M03 A3022 RMK A01 T01401031  RH  030%=      5-min Rain = 0
KHA2 132100Z 20013KT 14/M03 A3022 RMK A01 T01401031  RH  030%=      5-min Rain = 0
KHA2 132101Z 19010KT 14/M03 A3023 RMK A01 T01421030  RH  030%=      5-min Rain = 0
KHA2 132102Z 18011G16KT 14/M03 A3023 RMK A01 T01431031  RH  030%=      5-min Rain = 0
KHA2 132103Z 20013KT 14/M03 A3022 RMK A01 T01431031  RH  030%=      5-min Rain = 0
KHA2 132104Z 20010KT 15/M03 A3022 RMK A01 T01461029  RH  030%=      5-min Rain = 0
KHA2 132105Z 19013KT 15/M03 A3022 RMK A01 T01471030  RH  029%=      5-min Rain = 0
KHA2 132106Z 19014KT 15/M03 A3023 RMK A01 T01461033  RH  029%=      5-min Rain = 0
KHA2 132107Z 20013KT 15/M03 A3023 RMK A01 T01461032  RH  029%=      5-min Rain = 0
KHA2 132108Z 19012KT 15/M03 A3022 RMK A01 T01451032  RH  029%=      5-min Rain = 0
KHA2 132109Z 18011KT 15/M03 A3022 RMK A01 T01451031  RH  029%=      5-min Rain = 0
KHA2 132110Z 19011KT 14/M03 A3022 RMK A01 T01441032  RH  030%=      5-min Rain = 0
KHA2 132111Z 19014KT 14/M03 A3022 RMK A01 T01441032  RH  029%=      5-min Rain = 0
KHA2 132112Z 19013KT 15/M03 A3022 RMK A01 T01451032  RH  029%=      5-min Rain = 0
KHA2 132113Z 19013KT 14/M03 A3022 RMK A01 T01441032  RH  029%=      5-min Rain = 0
KHA2 132114Z 20013KT 15/M03 A3022 RMK A01 T01461031  RH  029%=      5-min Rain = 0
KHA2 132115Z 19012KT 15/M03 A3022 RMK A01 T01471032  RH  029%=      5-min Rain = 0
KHA2 132116Z 19013KT 15/M03 A3022 RMK A01 T01461033  RH  029%=      5-min Rain = 0
KHA2 132117Z 19011KT 15/M03 A3022 RMK A01 T01471032  RH  029%=      5-min Rain = 0
KHA2 132118Z 20011KT 15/M03 A3022 RMK A01 T01471033  RH  029%=      5-min Rain = 0
KHA2 132119Z 21012KT 15/M03 A3022 RMK A01 T01471033  RH  029%=      5-min Rain = 0
KHA2 132120Z 20014KT 15/M03 A3022 RMK A01 T01461034  RH  029%=      5-min Rain = 0
KHA2 132121Z 20014KT 15/M03 A3022 RMK A01 T01461034  RH  029%=      5-min Rain = 0
KHA2 132122Z 21013KT 15/M03 A3022 RMK A01 T01471034  RH  029%=      5-min Rain = 0
KHA2 132123Z 19014KT 15/M04 A3022 RMK A01 T01461035  RH  029%=      5-min Rain = 0
KHA2 132124Z 19013KT 15/M03 A3022 RMK A01 T01481034  RH  028%=      5-min Rain = 0
KHA2 132125Z 19012KT 15/M04 A3022 RMK A01 T01481035  RH  028%=      5-min Rain = 0
KHA2 132126Z 20011KT 15/M04 A3022 RMK A01 T01471036  RH  028%=      5-min Rain = 0
KHA2 132127Z 20013KT 15/M04 A3022 RMK A01 T01461036  RH  028%=      5-min Rain = 0
KHA2 132128Z 19011KT 15/M04 A3022 RMK A01 T01501035  RH  028%=      5-min Rain = 0
KHA2 132129Z 19014KT 15/M04 A3022 RMK A01 T01501036  RH  028%=      5-min Rain = 0
KHA2 132130Z 18014KT 15/M04 A3022 RMK A01 T01471037  RH  028%=      5-min Rain = 0
KHA2 132131Z 19016KT 15/M04 A3022 RMK A01 T01471037  RH  028%=      5-min Rain = 0
KHA2 132132Z 20014KT 15/M04 A3022 RMK A01 T01461037  RH  028%=      5-min Rain = 0
KHA2 132133Z 20012KT 15/M04 A3022 RMK A01 T01461036  RH  028%=      5-min Rain = 0
KHA2 132134Z 18012KT 15/M04 A3022 RMK A01 T01461036  RH  028%=      5-min Rain = 0
KHA2 132135Z 19015KT 15/M04 A3022 RMK A01 T01481036  RH  028%=      5-min Rain = 0
KHA2 132136Z 19015KT 15/M04 A3022 RMK A01 T01481037  RH  028%=      5-min Rain = 0
KHA2 132137Z 19012KT 15/M04 A3022 RMK A01 T01481036  RH  028%=      5-min Rain = 0
KHA2 132138Z 19011KT 15/M04 A3022 RMK A01 T01461037  RH  028%=      5-min Rain = 0
KHA2 132139Z 20013KT 15/M04 A3022 RMK A01 T01461036  RH  028%=      5-min Rain = 0
KHA2 132140Z 20015KT 15/M04 A3022 RMK A01 T01471037  RH  028%=      5-min Rain = 0
KHA2 132141Z 21014KT 15/M04 A3022 RMK A01 T01461038  RH  028%=      5-min Rain = 0
KHA2 132142Z 20015KT 15/M04 A3022 RMK A01 T01461038  RH  028%=      5-min Rain = 0
KHA2 132143Z 19014KT 15/M04 A3022 RMK A01 T01461037  RH  028%=      5-min Rain = 0
KHA2 132144Z 18013KT 15/M04 A3022 RMK A01 T01471037  RH  028%=      5-min Rain = 0
KHA2 132145Z 18015KT 15/M04 A3022 RMK A01 T01491036  RH  028%=      5-min Rain = 0
KHA2 132146Z 19013KT 15/M04 A3021 RMK A01 T01481038  RH  027%=      5-min Rain = 0
KHA2 132147Z 19014G20KT 15/M04 A3021 RMK A01 T01481038  RH  028%=      5-min Rain = 0
KHA2 132148Z 19014KT 15/M04 A3021 RMK A01 T01511035  RH  027%=      5-min Rain = 0
KHA2 132149Z 19011KT 15/M04 A3021 RMK A01 T01501038  RH  027%=      5-min Rain = 0
KHA2 132150Z 20014KT 15/M04 A3021 RMK A01 T01471039  RH  028%=      5-min Rain = 0
KHA2 132151Z 20014KT 15/M04 A3021 RMK A01 T01481038  RH  027%=      5-min Rain = 0
KHA2 132152Z 20012KT 15/M04 A3021 RMK A01 T01481039  RH  027%=      5-min Rain = 0
KHA2 132153Z 21012KT 15/M04 A3022 RMK A01 T01471039  RH  027%=      5-min Rain = 0
KHA2 132154Z 20013KT 15/M04 A3022 RMK A01 T01471039  RH  027%=      5-min Rain = 0
KHA2 132155Z 19014KT 15/M04 A3022 RMK A01 T01481038  RH  027%=      5-min Rain = 0
KHA2 132156Z 19012KT 15/M04 A3022 RMK A01 T01491038  RH  027%=      5-min Rain = 0
KHA2 132157Z 18013KT 15/M04 A3021 RMK A01 T01491037  RH  027%=      5-min Rain = 0
KHA2 132158Z 19012KT 15/M04 A3021 RMK A01 T01511037  RH  027%=      5-min Rain = 0
KHA2 132159Z 20011KT 15/M04 A3021 RMK A01 T01511038  RH  027%=      5-min Rain = 0
KHA2 132200Z 20010KT 15/M04 A3021 RMK A01 T01531037  RH  027%=      5-min Rain = 0
KHA2 132201Z 19013KT 15/M04 A3021 RMK A01 T01541037  RH  027%=      5-min Rain = 0
KHA2 132202Z 19011KT 15/M04 A3021 RMK A01 T01541038  RH  026%=      5-min Rain = 0
KHA2 132203Z 19011KT 15/M04 A3022 RMK A01 T01541037  RH  027%=      5-min Rain = 0
KHA2 132204Z 20011KT 16/M04 A3022 RMK A01 T01551037  RH  027%=      5-min Rain = 0
KHA2 132205Z 20009KT 15/M04 A3022 RMK A01 T01531037  RH  027%=      5-min Rain = 0
KHA2 132206Z 20013KT 16/M04 A3021 RMK A01 T01561036  RH  027%=      5-min Rain = 0
KHA2 132207Z 20011KT 16/M04 A3021 RMK A01 T01571038  RH  026%=      5-min Rain = 0
KHA2 132208Z 19012KT 16/M04 A3021 RMK A01 T01551038  RH  026%=      5-min Rain = 0
KHA2 132209Z 19012KT 16/M04 A3021 RMK A01 T01551037  RH  026%=      5-min Rain = 0
KHA2 132210Z 20012KT 16/M04 A3021 RMK A01 T01571036  RH  026%=      5-min Rain = 0
KHA2 132211Z 19010KT 16/M04 A3021 RMK A01 T01571036  RH  026%=      5-min Rain = 0
KHA2 132212Z 19009KT 16/M04 A3022 RMK A01 T01591035  RH  026%=      5-min Rain = 0
KHA2 132213Z 20012G18KT 16/M03 A3021 RMK A01 T01621034  RH  026%=      5-min Rain = 0
KHA2 132214Z 20011KT 16/M04 A3021 RMK A01 T01611036  RH  026%=      5-min Rain = 0
KHA2 132215Z 19013KT 16/M04 A3021 RMK A01 T01611036  RH  026%=      5-min Rain = 0
KHA2 132216Z 19012KT 16/M04 A3021 RMK A01 T01591037  RH  026%=      5-min Rain = 0
KHA2 132217Z 20013KT 16/M04 A3021 RMK A01 T01581037  RH  026%=      5-min Rain = 0
KHA2 132218Z 20013KT 16/M04 A3021 RMK A01 T01581036  RH  026%=      5-min Rain = 0
KHA2 132219Z 19011KT 16/M04 A3021 RMK A01 T01571037  RH  026%=      5-min Rain = 0
KHA2 132220Z 19012KT 16/M04 A3021 RMK A01 T01571036  RH  026%=      5-min Rain = 0
KHA2 132221Z 19011KT 16/M04 A3021 RMK A01 T01581035  RH  026%=      5-min Rain = 0
KHA2 132222Z 21010KT 16/M04 A3021 RMK A01 T01601035  RH  026%=      5-min Rain = 0
KHA2 132223Z 20012KT 16/M04 A3021 RMK A01 T01601035  RH  026%=      5-min Rain = 0
KHA2 132224Z 19011KT 16/M04 A3021 RMK A01 T01591036  RH  026%=      5-min Rain = 0
KHA2 132225Z 20012KT 16/M04 A3021 RMK A01 T01601036  RH  026%=      5-min Rain = 0
KHA2 132226Z 20013KT 16/M04 A3021 RMK A01 T01581038  RH  026%=      5-min Rain = 0
KHA2 132227Z 20012KT 16/M04 A3021 RMK A01 T01561037  RH  026%=      5-min Rain = 0
KHA2 132228Z 20012KT 16/M04 A3021 RMK A01 T01561036  RH  026%=      5-min Rain = 0
KHA2 132229Z 19013KT 16/M04 A3021 RMK A01 T01561036  RH  026%=      5-min Rain = 0
KHA2 132230Z 19012KT 16/M04 A3022 RMK A01 T01561036  RH  027%=      5-min Rain = 0
KHA2 132231Z 19010KT 16/M04 A3021 RMK A01 T01561036  RH  027%=      5-min Rain = 0
KHA2 132232Z 19013KT 16/M04 A3021 RMK A01 T01551035  RH  027%=      5-min Rain = 0
KHA2 132233Z 19014KT 16/M04 A3021 RMK A01 T01551035  RH  027%=      5-min Rain = 0
KHA2 132234Z 19014KT 15/M04 A3021 RMK A01 T01531036  RH  027%=      5-min Rain = 0
KHA2 132235Z 20013KT 15/M04 A3021 RMK A01 T01521036  RH  027%=      5-min Rain = 0
KHA2 132236Z 20012KT 15/M04 A3021 RMK A01 T01511036  RH  027%=      5-min Rain = 0
KHA2 132237Z 20014KT 15/M04 A3021 RMK A01 T01501037  RH  027%=      5-min Rain = 0
KHA2 132238Z 20012KT 15/M04 A3021 RMK A01 T01501036  RH  028%=      5-min Rain = 0
KHA2 132239Z 19011KT 15/M04 A3021 RMK A01 T01491035  RH  028%=      5-min Rain = 0
KHA2 132240Z 19012KT 15/M04 A3021 RMK A01 T01491035  RH  028%=      5-min Rain = 0
KHA2 132241Z 20014KT 15/M03 A3021 RMK A01 T01491034  RH  028%=      5-min Rain = 0
KHA2 132242Z 20012KT 15/M03 A3021 RMK A01 T01491034  RH  028%=      5-min Rain = 0
KHA2 132243Z 19011KT 15/M03 A3022 RMK A01 T01491034  RH  028%=      5-min Rain = 0
KHA2 132244Z 19012KT 15/M03 A3022 RMK A01 T01491033  RH  028%=      5-min Rain = 0
KHA2 132245Z 19011KT 15/M03 A3021 RMK A01 T01501032  RH  028%=      5-min Rain = 0
KHA2 132246Z 19010KT 15/M03 A3021 RMK A01 T01521031  RH  028%=      5-min Rain = 0
KHA2 132247Z 19011KT 15/M03 A3021 RMK A01 T01531029  RH  028%=      5-min Rain = 0
KHA2 132248Z 19013KT 16/M03 A3021 RMK A01 T01551028  RH  028%=      5-min Rain = 0
KHA2 132249Z 19014KT 16/M03 A3021 RMK A01 T01571028  RH  028%=      5-min Rain = 0
KHA2 132250Z 19012KT 16/M03 A3021 RMK A01 T01571027  RH  028%=      5-min Rain = 0
KHA2 132251Z 18012KT 16/M03 A3021 RMK A01 T01571027  RH  028%=      5-min Rain = 0
KHA2 132252Z 18015KT 16/M03 A3022 RMK A01 T01581027  RH  028%=      5-min Rain = 0
KHA2 132253Z 19013KT 16/M03 A3022 RMK A01 T01581027  RH  028%=      5-min Rain = 0
KHA2 132254Z 19015KT 16/M03 A3022 RMK A01 T01591027  RH  028%=      5-min Rain = 0
KHA2 132255Z 19013KT 16/M03 A3022 RMK A01 T01581028  RH  028%=      5-min Rain = 0
KHA2 132256Z 19011KT 16/M03 A3022 RMK A01 T01571028  RH  028%=      5-min Rain = 0
KHA2 132257Z 18014KT 16/M03 A3022 RMK A01 T01561028  RH  028%=      5-min Rain = 0
KHA2 132258Z 19013KT 15/M03 A3022 RMK A01 T01541029  RH  028%=      5-min Rain = 0
KHA2 132259Z 18013KT 15/M03 A3022 RMK A01 T01521030  RH  028%=      5-min Rain = 0
KHA2 132300Z 19011KT 15/M03 A3022 RMK A01 T01511030  RH  029%=      5-min Rain = 0
KHA2 132301Z 20009KT 15/M03 A3022 RMK A01 T01511030  RH  029%=      5-min Rain = 0
KHA2 132302Z 19012KT 15/M03 A3022 RMK A01 T01501030  RH  029%=      5-min Rain = 0
KHA2 132303Z 19010KT 15/M03 A3021 RMK A01 T01501029  RH  029%=      5-min Rain = 0
KHA2 132304Z 20011KT 15/M03 A3021 RMK A01 T01491030  RH  029%=      5-min Rain = 0
KHA2 132305Z 20012KT 15/M03 A3021 RMK A01 T01491029  RH  029%=      5-min Rain = 0
KHA2 132306Z 19011KT 15/M03 A3021 RMK A01 T01491029  RH  029%=      5-min Rain = 0
KHA2 132307Z 19012KT 15/M03 A3021 RMK A01 T01491029  RH  029%=      5-min Rain = 0
KHA2 132308Z 20011KT 15/M03 A3021 RMK A01 T01481029  RH  029%=      5-min Rain = 0
KHA2 132309Z 19010KT 15/M03 A3021 RMK A01 T01491029  RH  029%=      5-min Rain = 0
KHA2 132310Z 19010KT 15/M03 A3021 RMK A01 T01491029  RH  029%=      5-min Rain = 0
KHA2 132311Z 19011KT 15/M03 A3021 RMK A01 T01491029  RH  029%=      5-min Rain = 0
KHA2 132312Z 19010KT 15/M03 A3021 RMK A01 T01491028  RH  029%=      5-min Rain = 0
KHA2 132313Z 19011KT 15/M03 A3021 RMK A01 T01491028  RH  029%=      5-min Rain = 0
KHA2 132314Z 19011KT 15/M03 A3021 RMK A01 T01501028  RH  029%=      5-min Rain = 0
KHA2 132315Z 19012KT 15/M03 A3021 RMK A01 T01501028  RH  029%=      5-min Rain = 0
KHA2 132316Z 19014KT 15/M03 A3021 RMK A01 T01501027  RH  029%=      5-min Rain = 0
KHA2 132317Z 19012KT 15/M03 A3021 RMK A01 T01501027  RH  030%=      5-min Rain = 0
KHA2 132318Z 19012KT 15/M03 A3021 RMK A01 T01501027  RH  029%=      5-min Rain = 0
KHA2 132319Z 19012KT 15/M03 A3021 RMK A01 T01501027  RH  029%=      5-min Rain = 0
KHA2 132320Z 19012KT 15/M03 A3021 RMK A01 T01501026  RH  029%=      5-min Rain = 0
KHA2 132321Z 18013KT 15/M03 A3021 RMK A01 T01511026  RH  029%=      5-min Rain = 0
KHA2 132322Z 19010KT 15/M03 A3021 RMK A01 T01511026  RH  029%=      5-min Rain = 0
KHA2 132323Z 19010KT 15/M03 A3021 RMK A01 T01521025  RH  029%=      5-min Rain = 0
KHA2 132324Z 18012KT 15/M03 A3021 RMK A01 T01531025  RH  029%=      5-min Rain = 0
KHA2 132325Z 19013KT 15/M02 A3021 RMK A01 T01531024  RH  029%=      5-min Rain = 0
KHA2 132326Z 19012KT 15/M02 A3021 RMK A01 T01541024  RH  029%=      5-min Rain = 0
KHA2 132327Z 18012KT 15/M02 A3021 RMK A01 T01541024  RH  029%=      5-min Rain = 0
KHA2 132328Z 19010KT 15/M03 A3021 RMK A01 T01531025  RH  029%=      5-min Rain = 0
KHA2 132329Z 18010KT 15/M02 A3021 RMK A01 T01541024  RH  029%=      5-min Rain = 0
KHA2 132330Z 18011KT 15/M02 A3021 RMK A01 T01541024  RH  029%=      5-min Rain = 0
KHA2 132331Z 19012KT 15/M02 A3021 RMK A01 T01541024  RH  029%=      5-min Rain = 0
KHA2 132332Z 19014KT 15/M02 A3021 RMK A01 T01541024  RH  029%=      5-min Rain = 0
KHA2 132333Z 20013KT 15/M02 A3021 RMK A01 T01541023  RH  029%=      5-min Rain = 0
KHA2 132334Z 19014KT 15/M02 A3021 RMK A01 T01531023  RH  030%=      5-min Rain = 0
KHA2 132335Z 19012KT 15/M02 A3021 RMK A01 T01531023  RH  030%=      5-min Rain = 0
KHA2 132336Z 19012KT 15/M02 A3021 RMK A01 T01521023  RH  030%=      5-min Rain = 0
KHA2 132337Z 19012KT 15/M02 A3021 RMK A01 T01521023  RH  030%=      5-min Rain = 0
KHA2 132338Z 19012KT 15/M02 A3021 RMK A01 T01511023  RH  030%=      5-min Rain = 0
KHA2 132339Z 19012KT 15/M02 A3021 RMK A01 T01511024  RH  030%=      5-min Rain = 0
KHA2 132340Z 19012KT 15/M02 A3021 RMK A01 T01501024  RH  030%=      5-min Rain = 0
KHA2 132341Z 19013KT 15/M02 A3021 RMK A01 T01501024  RH  030%=      5-min Rain = 0
KHA2 132342Z 19012KT 15/M02 A3021 RMK A01 T01491024  RH  030%=      5-min Rain = 0
KHA2 132343Z 19011KT 15/M02 A3021 RMK A01 T01481023  RH  031%=      5-min Rain = 0
KHA2 132344Z 18011KT 15/M02 A3021 RMK A01 T01471024  RH  031%=      5-min Rain = 0
KHA2 132345Z 19011KT 15/M02 A3021 RMK A01 T01451024  RH  031%=      5-min Rain = 0
KHA2 132346Z 19011KT 15/M02 A3021 RMK A01 T01451023  RH  031%=      5-min Rain = 0
KHA2 132347Z 19010KT 14/M02 A3021 RMK A01 T01441023  RH  031%=      5-min Rain = 0
KHA2 132348Z 19010KT 14/M02 A3021 RMK A01 T01441023  RH  032%=      5-min Rain = 0
KHA2 132349Z 19009KT 14/M02 A3021 RMK A01 T01431023  RH  032%=      5-min Rain = 0
KHA2 132350Z 19011KT 14/M02 A3021 RMK A01 T01411024  RH  032%=      5-min Rain = 0
KHA2 132351Z 19010KT 14/M02 A3021 RMK A01 T01401023  RH  032%=      5-min Rain = 0
KHA2 132352Z 19009KT 14/M02 A3021 RMK A01 T01401022  RH  033%=      5-min Rain = 0
KHA2 132353Z 19010KT 14/M02 A3021 RMK A01 T01391022  RH  033%=      5-min Rain = 0
KHA2 132354Z 19010KT 14/M02 A3021 RMK A01 T01381022  RH  033%=      5-min Rain = 0
KHA2 132355Z 19009KT 14/M02 A3021 RMK A01 T01371022  RH  033%=      5-min Rain = 0
KHA2 132356Z 19010KT 14/M02 A3021 RMK A01 T01351022  RH  034%=      5-min Rain = 0
KHA2 132357Z 19010KT 14/M02 A3021 RMK A01 T01351021  RH  034%=      5-min Rain = 0
KHA2 132358Z 19010KT 14/M02 A3021 RMK A01 T01351019  RH  034%=      5-min Rain = 0
KHA2 132359Z 19010KT 14/M02 A3021 RMK A01 T01351018  RH  035%=      5-min Rain = 0
KHA2 140000Z 19010KT 13/M02 A3021 RMK A01 T01341018  RH  035%=      5-min Rain = 0
KHA2 140001Z 18010KT 13/M02 A3022 RMK A01 T01331018  RH  035%=      5-min Rain = 0
KHA2 140002Z 19010KT 13/M02 A3022 RMK A01 T01331017  RH  035%=      5-min Rain = 0
KHA2 140003Z 19010KT 13/M02 A3022 RMK A01 T01321017  RH  036%=      5-min Rain = 0
KHA2 140004Z 18011KT 13/M02 A3022 RMK A01 T01321016  RH  036%=      5-min Rain = 0
KHA2 140005Z 18011KT 13/M02 A3022 RMK A01 T01321015  RH  036%=      5-min Rain = 0
KHA2 140006Z 18010KT 13/M01 A3022 RMK A01 T01311014  RH  037%=      5-min Rain = 0
KHA2 140007Z 18010KT 13/M01 A3022 RMK A01 T01301014  RH  037%=      5-min Rain = 0
KHA2 140008Z 19011KT 13/M01 A3022 RMK A01 T01291013  RH  037%=      5-min Rain = 0
KHA2 140009Z 19010KT 13/M01 A3023 RMK A01 T01281012  RH  038%=      5-min Rain = 0
KHA2 140010Z 19010KT 13/M01 A3023 RMK A01 T01281011  RH  038%=      5-min Rain = 0
KHA2 140011Z 19009KT 13/M01 A3023 RMK A01 T01271012  RH  038%=      5-min Rain = 0
KHA2 140012Z 18009KT 13/M01 A3023 RMK A01 T01261012  RH  038%=      5-min Rain = 0
KHA2 140013Z 18009KT 13/M01 A3023 RMK A01 T01251012  RH  039%=      5-min Rain = 0
KHA2 140014Z 18008KT 12/M01 A3023 RMK A01 T01241013  RH  039%=      5-min Rain = 0
KHA2 140015Z 18008KT 12/M01 A3023 RMK A01 T01221013  RH  039%=      5-min Rain = 0
KHA2 140016Z 18008KT 12/M01 A3023 RMK A01 T01201013  RH  039%=      5-min Rain = 0
KHA2 140017Z 18008KT 12/M01 A3023 RMK A01 T01201013  RH  040%=      5-min Rain = 0
KHA2 140018Z 18008KT 12/M01 A3023 RMK A01 T01181013  RH  040%=      5-min Rain = 0
KHA2 140019Z 18008KT 12/M01 A3023 RMK A01 T01171014  RH  040%=      5-min Rain = 0
KHA2 140020Z 19008KT 12/M01 A3023 RMK A01 T01151014  RH  040%=      5-min Rain = 0
KHA2 140021Z 18008KT 12/M01 A3023 RMK A01 T01151014  RH  041%=      5-min Rain = 0
KHA2 140022Z 19009KT 12/M01 A3023 RMK A01 T01151013  RH  041%=      5-min Rain = 0
KHA2 140023Z 19008KT 12/M01 A3023 RMK A01 T01151013  RH  041%=      5-min Rain = 0
KHA2 140024Z 19008KT 12/M01 A3023 RMK A01 T01151013  RH  041%=      5-min Rain = 0
KHA2 140025Z 19009KT 11/M01 A3023 RMK A01 T01141013  RH  041%=      5-min Rain = 0
KHA2 140026Z 19009KT 11/M01 A3023 RMK A01 T01141013  RH  041%=      5-min Rain = 0
KHA2 140027Z 19009KT 11/M01 A3023 RMK A01 T01141013  RH  041%=      5-min Rain = 0
KHA2 140028Z 19009KT 11/M01 A3023 RMK A01 T01131013  RH  042%=      5-min Rain = 0
KHA2 140029Z 19009KT 11/M01 A3023 RMK A01 T01121014  RH  042%=      5-min Rain = 0
KHA2 140030Z 19009KT 11/M01 A3023 RMK A01 T01111013  RH  042%=      5-min Rain = 0
KHA2 140031Z 19008KT 11/M01 A3023 RMK A01 T01101014  RH  042%=      5-min Rain = 0
KHA2 140032Z 19009KT 11/M01 A3023 RMK A01 T01081014  RH  042%=      5-min Rain = 0
KHA2 140033Z 19009KT 11/M02 A3023 RMK A01 T01071015  RH  043%=      5-min Rain = 0
KHA2 140034Z 19009KT 11/M02 A3023 RMK A01 T01051015  RH  043%=      5-min Rain = 0
KHA2 140035Z 18009KT 10/M02 A3023 RMK A01 T01041015  RH  044%=      5-min Rain = 0
KHA2 140036Z 18009KT 10/M02 A3023 RMK A01 T01021016  RH  044%=      5-min Rain = 0
KHA2 140037Z 18010KT 10/M02 A3023 RMK A01 T01011015  RH  044%=      5-min Rain = 0
KHA2 140038Z 18010KT 10/M02 A3023 RMK A01 T00991016  RH  045%=      5-min Rain = 0
KHA2 140039Z 18009KT 10/M02 A3023 RMK A01 T00981016  RH  045%=      5-min Rain = 0
KHA2 140040Z 18009KT 10/M02 A3022 RMK A01 T00961016  RH  045%=      5-min Rain = 0
KHA2 140041Z 18009KT 10/M02 A3022 RMK A01 T00961016  RH  046%=      5-min Rain = 0
KHA2 140042Z 19010KT 09/M02 A3022 RMK A01 T00941016  RH  046%=      5-min Rain = 0
KHA2 140043Z 19010KT 09/M02 A3022 RMK A01 T00941017  RH  046%=      5-min Rain = 0
KHA2 140044Z 19009KT 09/M02 A3022 RMK A01 T00931017  RH  046%=      5-min Rain = 0
KHA2 140045Z 19009KT 09/M02 A3022 RMK A01 T00931017  RH  046%=      5-min Rain = 0
KHA2 140046Z 19009KT 09/M02 A3022 RMK A01 T00921017  RH  046%=      5-min Rain = 0
KHA2 140047Z 19009KT 09/M02 A3022 RMK A01 T00911017  RH  047%=      5-min Rain = 0
KHA2 140048Z 19009KT 09/M02 A3022 RMK A01 T00911017  RH  047%=      5-min Rain = 0
KHA2 140049Z 19009KT 09/M02 A3022 RMK A01 T00911017  RH  047%=      5-min Rain = 0
KHA2 140050Z 19008KT 09/M02 A3023 RMK A01 T00911016  RH  047%=      5-min Rain = 0
KHA2 140051Z 19008KT 09/M02 A3023 RMK A01 T00911016  RH  047%=      5-min Rain = 0
KHA2 140052Z 19008KT 09/M02 A3023 RMK A01 T00901016  RH  047%=      5-min Rain = 0
KHA2 140053Z 19008KT 09/M02 A3023 RMK A01 T00901016  RH  047%=      5-min Rain = 0
KHA2 140054Z 19008KT 09/M02 A3023 RMK A01 T00901016  RH  047%=      5-min Rain = 0
KHA2 140055Z 19008KT 09/M02 A3023 RMK A01 T00881017  RH  048%=      5-min Rain = 0
KHA2 140056Z 19008KT 09/M02 A3023 RMK A01 T00871018  RH  048%=      5-min Rain = 0
KHA2 140057Z 19008KT 09/M02 A3023 RMK A01 T00861018  RH  048%=      5-min Rain = 0
KHA2 140058Z 19008KT 09/M02 A3023 RMK A01 T00851018  RH  048%=      5-min Rain = 0
KHA2 140059Z 19008KT 08/M02 A3023 RMK A01 T00841018  RH  048%=      5-min Rain = 0
KHA2 140100Z 19007KT 08/M02 A3023 RMK A01 T00841018  RH  049%=      5-min Rain = 0
KHA2 140101Z 19007KT 08/M02 A3023 RMK A01 T00831018  RH  049%=      5-min Rain = 0
KHA2 140102Z 19007KT 08/M02 A3023 RMK A01 T00821018  RH  049%=      5-min Rain = 0
KHA2 140103Z 19007KT 08/M02 A3023 RMK A01 T00821018  RH  049%=      5-min Rain = 0
KHA2 140104Z 19007KT 08/M02 A3023 RMK A01 T00821017  RH  049%=      5-min Rain = 0
KHA2 140105Z 19006KT 08/M02 A3023 RMK A01 T00821018  RH  050%=      5-min Rain = 0
KHA2 140106Z 19006KT 08/M02 A3023 RMK A01 T00811018  RH  050%=      5-min Rain = 0
KHA2 140107Z 19006KT 08/M02 A3023 RMK A01 T00801018  RH  050%=      5-min Rain = 0
KHA2 140108Z 19006KT 08/M02 A3023 RMK A01 T00801018  RH  050%=      5-min Rain = 0
KHA2 140109Z 19007KT 08/M02 A3023 RMK A01 T00791017  RH  051%=      5-min Rain = 0
KHA2 140110Z 18007KT 08/M02 A3023 RMK A01 T00801017  RH  051%=      5-min Rain = 0
KHA2 140111Z 18007KT 08/M02 A3023 RMK A01 T00791017  RH  051%=      5-min Rain = 0
KHA2 140112Z 18007KT 08/M02 A3023 RMK A01 T00781018  RH  051%=      5-min Rain = 0
KHA2 140113Z 18007KT 08/M02 A3023 RMK A01 T00761019  RH  051%=      5-min Rain = 0
KHA2 140114Z 18008KT 08/M02 A3023 RMK A01 T00751018  RH  052%=      5-min Rain = 0
KHA2 140115Z 18008KT 08/M02 A3023 RMK A01 T00751018  RH  052%=      5-min Rain = 0
KHA2 140116Z 18008KT 07/M02 A3023 RMK A01 T00731019  RH  052%=      5-min Rain = 0
KHA2 140117Z 18008KT 07/M02 A3023 RMK A01 T00711020  RH  052%=      5-min Rain = 0
KHA2 140118Z 18007KT 07/M02 A3023 RMK A01 T00691021  RH  053%=      5-min Rain = 0
KHA2 140119Z 18007KT 07/M02 A3023 RMK A01 T00681022  RH  053%=      5-min Rain = 0
KHA2 140120Z 18007KT 07/M02 A3023 RMK A01 T00661021  RH  054%=      5-min Rain = 0
KHA2 140121Z 18007KT 07/M02 A3023 RMK A01 T00651022  RH  054%=      5-min Rain = 0
KHA2 140122Z 18008KT 06/M02 A3023 RMK A01 T00641022  RH  054%=      5-min Rain = 0
KHA2 140123Z 18007KT 06/M02 A3023 RMK A01 T00631022  RH  054%=      5-min Rain = 0
KHA2 140124Z 17007KT 06/M02 A3023 RMK A01 T00621023  RH  055%=      5-min Rain = 0
KHA2 140125Z 17008KT 06/M02 A3023 RMK A01 T00611023  RH  055%=      5-min Rain = 0
KHA2 140126Z 18008KT 06/M02 A3023 RMK A01 T00611022  RH  055%=      5-min Rain = 0
KHA2 140127Z 18008KT 06/M02 A3023 RMK A01 T00601023  RH  055%=      5-min Rain = 0
KHA2 140128Z 18008KT 06/M02 A3023 RMK A01 T00601023  RH  055%=      5-min Rain = 0
KHA2 140129Z 18008KT 06/M02 A3023 RMK A01 T00591023  RH  055%=      5-min Rain = 0
KHA2 140130Z 18008KT 06/M02 A3023 RMK A01 T00601022  RH  056%=      5-min Rain = 0
KHA2 140131Z 18008KT 06/M02 A3023 RMK A01 T00591024  RH  055%=      5-min Rain = 0
KHA2 140132Z 18008KT 06/M02 A3023 RMK A01 T00591024  RH  055%=      5-min Rain = 0
KHA2 140133Z 18008KT 06/M03 A3023 RMK A01 T00581025  RH  055%=      5-min Rain = 0
KHA2 140134Z 18009KT 06/M02 A3023 RMK A01 T00581024  RH  056%=      5-min Rain = 0
KHA2 140135Z 18009KT 06/M02 A3023 RMK A01 T00581023  RH  056%=      5-min Rain = 0
KHA2 140136Z 19009KT 06/M02 A3023 RMK A01 T00581022  RH  056%=      5-min Rain = 0
KHA2 140137Z 19009KT 06/M02 A3023 RMK A01 T00571022  RH  056%=      5-min Rain = 0
KHA2 140138Z 19009KT 06/M02 A3023 RMK A01 T00571022  RH  057%=      5-min Rain = 0
KHA2 140139Z 19009KT 06/M02 A3023 RMK A01 T00571021  RH  057%=      5-min Rain = 0
KHA2 140140Z 19009KT 06/M02 A3023 RMK A01 T00571020  RH  058%=      5-min Rain = 0
KHA2 140141Z 19009KT 06/M02 A3023 RMK A01 T00581018  RH  058%=      5-min Rain = 0
KHA2 140142Z 19009KT 06/M02 A3023 RMK A01 T00591017  RH  058%=      5-min Rain = 0
KHA2 140143Z 19010KT 06/M02 A3024 RMK A01 T00601015  RH  059%=      5-min Rain = 0
KHA2 140144Z 19010KT 06/M01 A3024 RMK A01 T00621013  RH  059%=      5-min Rain = 0
KHA2 140145Z 19010KT 06/M01 A3024 RMK A01 T00641012  RH  058%=      5-min Rain = 0
KHA2 140146Z 19010KT 07/M01 A3024 RMK A01 T00661011  RH  058%=      5-min Rain = 0
KHA2 140147Z 19009KT 07/M01 A3024 RMK A01 T00681011  RH  057%=      5-min Rain = 0
KHA2 140148Z 19009KT 07/M01 A3024 RMK A01 T00691011  RH  057%=      5-min Rain = 0
KHA2 140149Z 19009KT 07/M01 A3024 RMK A01 T00701010  RH  057%=      5-min Rain = 0
KHA2 140150Z 19009KT 07/M01 A3024 RMK A01 T00711010  RH  056%=      5-min Rain = 0
KHA2 140151Z 19010KT 07/M01 A3024 RMK A01 T00721010  RH  056%=      5-min Rain = 0
KHA2 140152Z 19010KT 07/M01 A3024 RMK A01 T00731009  RH  056%=      5-min Rain = 0
KHA2 140153Z 19010KT 07/M01 A3024 RMK A01 T00741008  RH  056%=      5-min Rain = 0
KHA2 140154Z 19010KT 08/M01 A3024 RMK A01 T00751007  RH  056%=      5-min Rain = 0
KHA2 140155Z 19010KT 08/M01 A3024 RMK A01 T00761007  RH  056%=      5-min Rain = 0
KHA2 140156Z 19010KT 08/M01 A3024 RMK A01 T00761007  RH  056%=      5-min Rain = 0
KHA2 140157Z 19010KT 08/M01 A3024 RMK A01 T00761007  RH  056%=      5-min Rain = 0
KHA2 140158Z 19010KT 08/M01 A3024 RMK A01 T00761007  RH  056%=      5-min Rain = 0
KHA2 140159Z 19010KT 07/M01 A3024 RMK A01 T00741009  RH  056%=      5-min Rain = 0
KHA2 140200Z 19009KT 07/M01 A3024 RMK A01 T00741008  RH  056%=      5-min Rain = 0
KHA2 140201Z 19009KT 07/M01 A3024 RMK A01 T00721009  RH  056%=      5-min Rain = 0
KHA2 140202Z 19009KT 07/M01 A3024 RMK A01 T00721009  RH  056%=      5-min Rain = 0
KHA2 140203Z 19009KT 07/M01 A3024 RMK A01 T00711010  RH  057%=      5-min Rain = 0
KHA2 140204Z 19009KT 07/M01 A3024 RMK A01 T00711009  RH  057%=      5-min Rain = 0
KHA2 140205Z 19008KT 07/M01 A3024 RMK A01 T00701009  RH  057%=      5-min Rain = 0
KHA2 140206Z 19009KT 07/M01 A3024 RMK A01 T00691010  RH  057%=      5-min Rain = 0
KHA2 140207Z 19009KT 07/M01 A3024 RMK A01 T00691009  RH  057%=      5-min Rain = 0
KHA2 140208Z 19009KT 07/M01 A3024 RMK A01 T00681009  RH  058%=      5-min Rain = 0
KHA2 140209Z 19008KT 07/M01 A3024 RMK A01 T00681009  RH  058%=      5-min Rain = 0
KHA2 140210Z 19008KT 07/M01 A3024 RMK A01 T00681009  RH  058%=      5-min Rain = 0
KHA2 140211Z 19008KT 07/M01 A3024 RMK A01 T00681009  RH  058%=      5-min Rain = 0
KHA2 140212Z 19009KT 07/M01 A3024 RMK A01 T00681008  RH  058%=      5-min Rain = 0
KHA2 140213Z 19009KT 07/M01 A3024 RMK A01 T00671008  RH  059%=      5-min Rain = 0
KHA2 140214Z 19009KT 07/M01 A3024 RMK A01 T00671008  RH  059%=      5-min Rain = 0
KHA2 140215Z 19009KT 07/M01 A3024 RMK A01 T00671008  RH  059%=      5-min Rain = 0
KHA2 140216Z 19009KT 07/M01 A3024 RMK A01 T00661008  RH  059%=      5-min Rain = 0
KHA2 140217Z 19009KT 07/M01 A3024 RMK A01 T00671007  RH  059%=      5-min Rain = 0
KHA2 140218Z 19009KT 07/M01 A3024 RMK A01 T00671007  RH  059%=      5-min Rain = 0
KHA2 140219Z 19009KT 07/M01 A3024 RMK A01 T00671007  RH  059%=      5-min Rain = 0
KHA2 140220Z 19008KT 07/M01 A3024 RMK A01 T00671007  RH  059%=      5-min Rain = 0
KHA2 140221Z 19008KT 07/M01 A3024 RMK A01 T00671007  RH  059%=      5-min Rain = 0
KHA2 140222Z 19009KT 07/M01 A3024 RMK A01 T00671007  RH  059%=      5-min Rain = 0
KHA2 140223Z 19008KT 07/M01 A3024 RMK A01 T00661008  RH  059%=      5-min Rain = 0
KHA2 140224Z 19008KT 07/M01 A3024 RMK A01 T00661008  RH  059%=      5-min Rain = 0
KHA2 140225Z 19008KT 07/M01 A3024 RMK A01 T00651008  RH  060%=      5-min Rain = 0
KHA2 140226Z 19009KT 06/M01 A3024 RMK A01 T00641008  RH  060%=      5-min Rain = 0
KHA2 140227Z 19009KT 06/M01 A3024 RMK A01 T00641008  RH  060%=      5-min Rain = 0
KHA2 140228Z 19008KT 06/M01 A3024 RMK A01 T00641007  RH  060%=      5-min Rain = 0
KHA2 140229Z 19008KT 06/M01 A3024 RMK A01 T00631007  RH  060%=      5-min Rain = 0
KHA2 140230Z 19008KT 06/M01 A3024 RMK A01 T00631007  RH  061%=      5-min Rain = 0
KHA2 140231Z 19008KT 06/M01 A3024 RMK A01 T00631007  RH  061%=      5-min Rain = 0
KHA2 140232Z 19009KT 06/M01 A3024 RMK A01 T00611008  RH  061%=      5-min Rain = 0
KHA2 140233Z 19009KT 06/M01 A3024 RMK A01 T00611008  RH  061%=      5-min Rain = 0
KHA2 140234Z 19009KT 06/M01 A3024 RMK A01 T00601008  RH  062%=      5-min Rain = 0
KHA2 140235Z 19010KT 06/M01 A3024 RMK A01 T00601008  RH  062%=      5-min Rain = 0
KHA2 140236Z 19010KT 06/M01 A3024 RMK A01 T00601008  RH  062%=      5-min Rain = 0
KHA2 140237Z 19010KT 06/M01 A3024 RMK A01 T00601008  RH  062%=      5-min Rain = 0
KHA2 140238Z 19010KT 06/M01 A3024 RMK A01 T00611007  RH  062%=      5-min Rain = 0
KHA2 140239Z 19010KT 06/M01 A3024 RMK A01 T00611007  RH  062%=      5-min Rain = 0
KHA2 140240Z 19010KT 06/M01 A3024 RMK A01 T00631005  RH  062%=      5-min Rain = 0
KHA2 140241Z 19009KT 06/M01 A3024 RMK A01 T00641005  RH  061%=      5-min Rain = 0
KHA2 140242Z 19009KT 06/M01 A3024 RMK A01 T00641005  RH  061%=      5-min Rain = 0
KHA2 140243Z 19010KT 06/M01 A3024 RMK A01 T00641006  RH  061%=      5-min Rain = 0
KHA2 140244Z 18010KT 06/M01 A3024 RMK A01 T00631005  RH  061%=      5-min Rain = 0
KHA2 140245Z 18010KT 06/M01 A3024 RMK A01 T00641005  RH  061%=      5-min Rain = 0
KHA2 140246Z 18010KT 06/M01 A3024 RMK A01 T00621006  RH  061%=      5-min Rain = 0
KHA2 140247Z 18009KT 06/M01 A3024 RMK A01 T00621007  RH  062%=      5-min Rain = 0
KHA2 140248Z 18010KT 06/M01 A3024 RMK A01 T00611007  RH  062%=      5-min Rain = 0
KHA2 140249Z 18010KT 06/M01 A3024 RMK A01 T00591008  RH  062%=      5-min Rain = 0
KHA2 140250Z 18010KT 06/M01 A3024 RMK A01 T00581008  RH  062%=      5-min Rain = 0
KHA2 140251Z 18010KT 06/M01 A3024 RMK A01 T00571009  RH  063%=      5-min Rain = 0
KHA2 140252Z 18010KT 06/M01 A3024 RMK A01 T00561008  RH  063%=      5-min Rain = 0
KHA2 140253Z 18010KT 06/M01 A3024 RMK A01 T00561009  RH  063%=      5-min Rain = 0
KHA2 140254Z 18010KT 06/M01 A3024 RMK A01 T00561008  RH  063%=      5-min Rain = 0
KHA2 140255Z 18010KT 06/M01 A3024 RMK A01 T00561008  RH  064%=      5-min Rain = 0
KHA2 140256Z 18009KT 06/M01 A3024 RMK A01 T00561008  RH  063%=      5-min Rain = 0
KHA2 140257Z 18009KT 06/M01 A3024 RMK A01 T00561008  RH  064%=      5-min Rain = 0
KHA2 140258Z 18009KT 06/M01 A3024 RMK A01 T00551008  RH  064%=      5-min Rain = 0
KHA2 140259Z 19008KT 06/M01 A3024 RMK A01 T00551008  RH  064%=      5-min Rain = 0
KHA2 140300Z 18008KT 06/M01 A3024 RMK A01 T00551008  RH  064%=      5-min Rain = 0
KHA2 140301Z 19008KT 06/M01 A3024 RMK A01 T00551009  RH  064%=      5-min Rain = 0
KHA2 140302Z 19008KT 06/M01 A3024 RMK A01 T00551009  RH  064%=      5-min Rain = 0
KHA2 140303Z 19008KT 05/M01 A3024 RMK A01 T00541009  RH  064%=      5-min Rain = 0
KHA2 140304Z 19008KT 05/M01 A3024 RMK A01 T00541010  RH  064%=      5-min Rain = 0
KHA2 140305Z 19008KT 05/M01 A3024 RMK A01 T00531010  RH  064%=      5-min Rain = 0
KHA2 140306Z 19008KT 05/M01 A3024 RMK A01 T00531010  RH  064%=      5-min Rain = 0
KHA2 140307Z 19008KT 05/M01 A3024 RMK A01 T00531010  RH  064%=      5-min Rain = 0
KHA2 140308Z 19007KT 05/M01 A3024 RMK A01 T00521010  RH  064%=      5-min Rain = 0
KHA2 140309Z 19008KT 05/M01 A3024 RMK A01 T00511010  RH  064%=      5-min Rain = 0
KHA2 140310Z 19007KT 05/M01 A3024 RMK A01 T00521010  RH  065%=      5-min Rain = 0
KHA2 140311Z 19008KT 05/M01 A3024 RMK A01 T00521010  RH  065%=      5-min Rain = 0
KHA2 140312Z 19008KT 05/M01 A3024 RMK A01 T00521009  RH  065%=      5-min Rain = 0
KHA2 140313Z 20007KT 05/M01 A3024 RMK A01 T00521009  RH  065%=      5-min Rain = 0
KHA2 140314Z 20008KT 05/M01 A3024 RMK A01 T00521010  RH  065%=      5-min Rain = 0
KHA2 140315Z 20008KT 05/M01 A3024 RMK A01 T00531008  RH  065%=      5-min Rain = 0
KHA2 140316Z 20008KT 05/M01 A3024 RMK A01 T00541007  RH  065%=      5-min Rain = 0
KHA2 140317Z 20008KT 06/M01 A3024 RMK A01 T00551006  RH  065%=      5-min Rain = 0
KHA2 140318Z 20008KT 06/M01 A3024 RMK A01 T00571005  RH  064%=      5-min Rain = 0
KHA2 140319Z 20008KT 06/M01 A3024 RMK A01 T00571005  RH  064%=      5-min Rain = 0
KHA2 140320Z 20008KT 06/M01 A3024 RMK A01 T00581006  RH  064%=      5-min Rain = 0
KHA2 140321Z 20009KT 06/M01 A3024 RMK A01 T00581006  RH  064%=      5-min Rain = 0
KHA2 140322Z 20008KT 06/M01 A3024 RMK A01 T00581007  RH  063%=      5-min Rain = 0
KHA2 140323Z 20009KT 06/M01 A3024 RMK A01 T00581008  RH  063%=      5-min Rain = 0
KHA2 140324Z 20008KT 06/M01 A3024 RMK A01 T00571008  RH  063%=      5-min Rain = 0
KHA2 140325Z 20009KT 06/M01 A3024 RMK A01 T00561008  RH  063%=      5-min Rain = 0
KHA2 140326Z 20009KT 06/M01 A3024 RMK A01 T00561008  RH  063%=      5-min Rain = 0
KHA2 140327Z 20009KT 06/M01 A3024 RMK A01 T00561008  RH  063%=      5-min Rain = 0
KHA2 140328Z 20009KT 06/M01 A3024 RMK A01 T00551010  RH  063%=      5-min Rain = 0
KHA2 140329Z 20009KT 05/M01 A3024 RMK A01 T00531011  RH  063%=      5-min Rain = 0
KHA2 140330Z 20009KT 05/M01 A3024 RMK A01 T00521011  RH  063%=      5-min Rain = 0
KHA2 140331Z 20009KT 05/M01 A3024 RMK A01 T00511013  RH  064%=      5-min Rain = 0
KHA2 140332Z 20009KT 05/M01 A3024 RMK A01 T00491013  RH  064%=      5-min Rain = 0
KHA2 140333Z 20009KT 05/M01 A3024 RMK A01 T00491013  RH  064%=      5-min Rain = 0
KHA2 140334Z 20009KT 05/M01 A3024 RMK A01 T00481013  RH  065%=      5-min Rain = 0
KHA2 140335Z 20009KT 05/M01 A3024 RMK A01 T00481012  RH  065%=      5-min Rain = 0
KHA2 140336Z 20010KT 05/M01 A3024 RMK A01 T00471013  RH  065%=      5-min Rain = 0
KHA2 140337Z 20009KT 05/M01 A3024 RMK A01 T00471012  RH  065%=      5-min Rain = 0
KHA2 140338Z 20010KT 05/M01 A3024 RMK A01 T00481011  RH  066%=      5-min Rain = 0
KHA2 140339Z 20009KT 05/M01 A3024 RMK A01 T00491009  RH  066%=      5-min Rain = 0
KHA2 140340Z 20009KT 05/M01 A3024 RMK A01 T00511008  RH  066%=      5-min Rain = 0
KHA2 140341Z 20009KT 05/M01 A3024 RMK A01 T00521008  RH  066%=      5-min Rain = 0
KHA2 140342Z 20009KT 05/M01 A3024 RMK A01 T00521008  RH  065%=      5-min Rain = 0
KHA2 140343Z 20009KT 05/M01 A3024 RMK A01 T00521008  RH  065%=      5-min Rain = 0
KHA2 140344Z 20009KT 05/M01 A3024 RMK A01 T00521008  RH  065%=      5-min Rain = 0
KHA2 140345Z 20009KT 05/M01 A3024 RMK A01 T00531008  RH  065%=      5-min Rain = 0
KHA2 140346Z 20010KT 05/M01 A3024 RMK A01 T00531008  RH  065%=      5-min Rain = 0
KHA2 140347Z 20010KT 05/M01 A3024 RMK A01 T00531008  RH  065%=      5-min Rain = 0
KHA2 140348Z 20010KT 05/M01 A3024 RMK A01 T00531008  RH  065%=      5-min Rain = 0
KHA2 140349Z 20009KT 05/M01 A3024 RMK A01 T00541008  RH  065%=      5-min Rain = 0
KHA2 140350Z 20009KT 05/M01 A3024 RMK A01 T00541007  RH  065%=      5-min Rain = 0
KHA2 140351Z 20009KT 05/M01 A3025 RMK A01 T00531008  RH  065%=      5-min Rain = 0
KHA2 140352Z 20009KT 05/M01 A3025 RMK A01 T00531008  RH  065%=      5-min Rain = 0
KHA2 140353Z 20009KT 05/M01 A3025 RMK A01 T00531007  RH  065%=      5-min Rain = 0
KHA2 140354Z 20009KT 05/M01 A3025 RMK A01 T00531008  RH  065%=      5-min Rain = 0
KHA2 140355Z 20009KT 05/M01 A3025 RMK A01 T00531008  RH  065%=      5-min Rain = 0
KHA2 140356Z 20010KT 05/M01 A3025 RMK A01 T00521008  RH  065%=      5-min Rain = 0
KHA2 140357Z 20009KT 05/M01 A3024 RMK A01 T00521007  RH  066%=      5-min Rain = 0
KHA2 140358Z 20009KT 05/M01 A3024 RMK A01 T00531007  RH  065%=      5-min Rain = 0
KHA2 140359Z 20009KT 05/M01 A3024 RMK A01 T00521007  RH  065%=      5-min Rain = 0
KHA2 140400Z 20008KT 05/M01 A3024 RMK A01 T00521007  RH  066%=      5-min Rain = 0
KHA2 140401Z 20008KT 05/M01 A3024 RMK A01 T00521008  RH  065%=      5-min Rain = 0
KHA2 140402Z 20009KT 05/M01 A3025 RMK A01 T00511009  RH  065%=      5-min Rain = 0
KHA2 140403Z 20009KT 05/M01 A3025 RMK A01 T00501009  RH  066%=      5-min Rain = 0
KHA2 140404Z 20009KT 05/M01 A3025 RMK A01 T00501009  RH  066%=      5-min Rain = 0
KHA2 140405Z 20009KT 05/M01 A3025 RMK A01 T00481010  RH  066%=      5-min Rain = 0
KHA2 140406Z 21009KT 05/M01 A3025 RMK A01 T00481010  RH  066%=      5-min Rain = 0
KHA2 140407Z 21009KT 05/M01 A3025 RMK A01 T00471011  RH  066%=      5-min Rain = 0
KHA2 140408Z 21009KT 05/M01 A3025 RMK A01 T00471010  RH  067%=      5-min Rain = 0
KHA2 140409Z 21009KT 05/M01 A3025 RMK A01 T00471010  RH  067%=      5-min Rain = 0
KHA2 140410Z 21009KT 05/M01 A3025 RMK A01 T00461011  RH  067%=      5-min Rain = 0
KHA2 140411Z 21008KT 05/M01 A3025 RMK A01 T00461010  RH  067%=      5-min Rain = 0
KHA2 140412Z 21008KT 05/M01 A3025 RMK A01 T00461010  RH  067%=      5-min Rain = 0
KHA2 140413Z 21008KT 05/M01 A3025 RMK A01 T00461010  RH  067%=      5-min Rain = 0
KHA2 140414Z 21009KT 05/M01 A3025 RMK A01 T00461009  RH  067%=      5-min Rain = 0
KHA2 140415Z 21009KT 05/M01 A3025 RMK A01 T00471007  RH  068%=      5-min Rain = 0
KHA2 140416Z 21009KT 05/M01 A3025 RMK A01 T00481007  RH  068%=      5-min Rain = 0
KHA2 140417Z 21009KT 05/M01 A3025 RMK A01 T00471008  RH  067%=      5-min Rain = 0
KHA2 140418Z 22009KT 05/M01 A3025 RMK A01 T00471008  RH  067%=      5-min Rain = 0
KHA2 140419Z 22008KT 05/M01 A3025 RMK A01 T00461009  RH  067%=      5-min Rain = 0
KHA2 140420Z 22008KT 05/M01 A3025 RMK A01 T00451011  RH  067%=      5-min Rain = 0
KHA2 140421Z 22008KT 04/M01 A3025 RMK A01 T00421014  RH  067%=      5-min Rain = 0
KHA2 140422Z 22008KT 04/M02 A3025 RMK A01 T00391017  RH  067%=      5-min Rain = 0
KHA2 140423Z 22008KT 04/M02 A3025 RMK A01 T00371018  RH  067%=      5-min Rain = 0
KHA2 140424Z 22008KT 04/M02 A3025 RMK A01 T00361018  RH  068%=      5-min Rain = 0
KHA2 140425Z 22008KT 04/M02 A3025 RMK A01 T00351018  RH  068%=      5-min Rain = 0
KHA2 140426Z 22008KT 03/M02 A3025 RMK A01 T00341017  RH  069%=      5-min Rain = 0
KHA2 140427Z 22009KT 04/M02 A3025 RMK A01 T00351016  RH  069%=      5-min Rain = 0
KHA2 140428Z 22009KT 04/M01 A3025 RMK A01 T00361014  RH  070%=      5-min Rain = 0
KHA2 140429Z 22009KT 04/M01 A3025 RMK A01 T00371014  RH  069%=      5-min Rain = 0
KHA2 140430Z 22009KT 04/M01 A3024 RMK A01 T00371014  RH  069%=      5-min Rain = 0
KHA2 140431Z 22008KT 04/M01 A3024 RMK A01 T00371014  RH  069%=      5-min Rain = 0
KHA2 140432Z 22009KT 04/M01 A3024 RMK A01 T00371014  RH  069%=      5-min Rain = 0
KHA2 140433Z 22009KT 04/M01 A3024 RMK A01 T00381012  RH  070%=      5-min Rain = 0
KHA2 140434Z 22009KT 04/M01 A3024 RMK A01 T00401010  RH  070%=      5-min Rain = 0
KHA2 140435Z 22009KT 04/M01 A3024 RMK A01 T00421008  RH  070%=      5-min Rain = 0
KHA2 140436Z 22009KT 04/M01 A3024 RMK A01 T00441008  RH  069%=      5-min Rain = 0
KHA2 140437Z 22009KT 04/M01 A3024 RMK A01 T00441009  RH  069%=      5-min Rain = 0
KHA2 140438Z 22009KT 04/M01 A3024 RMK A01 T00441009  RH  068%=      5-min Rain = 0
KHA2 140439Z 22009KT 04/M01 A3024 RMK A01 T00441008  RH  069%=      5-min Rain = 0
KHA2 140440Z 22008KT 05/M01 A3024 RMK A01 T00451008  RH  069%=      5-min Rain = 0
KHA2 140441Z 22008KT 05/M01 A3024 RMK A01 T00451007  RH  069%=      5-min Rain = 0
KHA2 140442Z 22008KT 05/M01 A3024 RMK A01 T00461007  RH  069%=      5-min Rain = 0
KHA2 140443Z 22008KT 05/M01 A3024 RMK A01 T00471006  RH  069%=      5-min Rain = 0
KHA2 140444Z 22009KT 05/M00 A3024 RMK A01 T00481004  RH  069%=      5-min Rain = 0
KHA2 140445Z 22008KT 05/M00 A3024 RMK A01 T00491004  RH  068%=      5-min Rain = 0
KHA2 140446Z 22008KT 05/M00 A3024 RMK A01 T00501004  RH  068%=      5-min Rain = 0
KHA2 140447Z 22008KT 05/M01 A3024 RMK A01 T00501005  RH  068%=      5-min Rain = 0
KHA2 140448Z 22008KT 05/M01 A3024 RMK A01 T00491005  RH  068%=      5-min Rain = 0
KHA2 140449Z 22008KT 05/M01 A3024 RMK A01 T00491006  RH  068%=      5-min Rain = 0
KHA2 140450Z 22008KT 05/M01 A3024 RMK A01 T00481006  RH  068%=      5-min Rain = 0
KHA2 140451Z 22008KT 05/M01 A3024 RMK A01 T00471007  RH  068%=      5-min Rain = 0
KHA2 140452Z 22008KT 05/M01 A3024 RMK A01 T00461007  RH  068%=      5-min Rain = 0
KHA2 140453Z 22008KT 05/M01 A3024 RMK A01 T00461006  RH  069%=      5-min Rain = 0
KHA2 140454Z 22007KT 05/M01 A3024 RMK A01 T00461006  RH  069%=      5-min Rain = 0
KHA2 140455Z 22007KT 05/M01 A3024 RMK A01 T00461007  RH  069%=      5-min Rain = 0
KHA2 140456Z 22008KT 05/M01 A3024 RMK A01 T00461006  RH  069%=      5-min Rain = 0
KHA2 140457Z 21008KT 05/M01 A3023 RMK A01 T00461006  RH  069%=      5-min Rain = 0
KHA2 140458Z 21008KT 05/M01 A3023 RMK A01 T00461005  RH  069%=      5-min Rain = 0
KHA2 140459Z 21009KT 05/M00 A3023 RMK A01 T00471004  RH  069%=      5-min Rain = 0
KHA2 140500Z 21009KT 05/M00 A3024 RMK A01 T00501001  RH  070%=      5-min Rain = 0
KHA2 140501Z 21009KT 05/M00 A3023 RMK A01 T00511001  RH  069%=      5-min Rain = 0
KHA2 140502Z 21009KT 05/M00 A3023 RMK A01 T00521001  RH  069%=      5-min Rain = 0
KHA2 140503Z 21009KT 05/M00 A3024 RMK A01 T00531001  RH  068%=      5-min Rain = 0
KHA2 140504Z 21009KT 05/00 A3023 RMK A01 T005400-0  RH  068%=      5-min Rain = 0
KHA2 140505Z 21009KT 05/00 A3023 RMK A01 T005400-0  RH  068%=      5-min Rain = 0
KHA2 140506Z 21010KT 06/00 A3023 RMK A01 T005500-0  RH  068%=      5-min Rain = 0
KHA2 140507Z 21009KT 06/00 A3023 RMK A01 T00550000  RH  068%=      5-min Rain = 0
KHA2 140508Z 21010KT 06/00 A3023 RMK A01 T00560001  RH  068%=      5-min Rain = 0
KHA2 140509Z 21010KT 06/00 A3023 RMK A01 T00570002  RH  068%=      5-min Rain = 0
KHA2 140510Z 21010KT 06/00 A3023 RMK A01 T00580002  RH  067%=      5-min Rain = 0
KHA2 140511Z 21010KT 06/00 A3023 RMK A01 T00590002  RH  067%=      5-min Rain = 0
KHA2 140512Z 21010KT 06/00 A3023 RMK A01 T00580002  RH  067%=      5-min Rain = 0
KHA2 140513Z 21010KT 06/00 A3023 RMK A01 T00590002  RH  067%=      5-min Rain = 0
KHA2 140514Z 21010KT 06/00 A3023 RMK A01 T00590002  RH  067%=      5-min Rain = 0
KHA2 140515Z 21010KT 06/00 A3023 RMK A01 T00580001  RH  067%=      5-min Rain = 0
KHA2 140516Z 21010KT 06/00 A3023 RMK A01 T00580002  RH  067%=      5-min Rain = 0
KHA2 140517Z 21011KT 06/00 A3023 RMK A01 T00580002  RH  067%=      5-min Rain = 0
KHA2 140518Z 21011KT 06/00 A3023 RMK A01 T00580002  RH  067%=      5-min Rain = 0
KHA2 140519Z 21011KT 06/00 A3023 RMK A01 T00580001  RH  067%=      5-min Rain = 0
KHA2 140520Z 20010KT 06/00 A3023 RMK A01 T00580001  RH  067%=      5-min Rain = 0
KHA2 140521Z 20011KT 06/00 A3023 RMK A01 T00570001  RH  067%=      5-min Rain = 0
KHA2 140522Z 20011KT 06/00 A3023 RMK A01 T00570002  RH  067%=      5-min Rain = 0
KHA2 140523Z 21011KT 06/00 A3023 RMK A01 T00580002  RH  067%=      5-min Rain = 0
KHA2 140524Z 21011KT 06/00 A3023 RMK A01 T00580002  RH  067%=      5-min Rain = 0
KHA2 140525Z 21011KT 06/00 A3023 RMK A01 T00580001  RH  067%=      5-min Rain = 0
KHA2 140526Z 21011KT 06/00 A3023 RMK A01 T00580001  RH  067%=      5-min Rain = 0
KHA2 140527Z 21011KT 06/00 A3023 RMK A01 T00570000  RH  067%=      5-min Rain = 0
KHA2 140528Z 21011KT 06/00 A3023 RMK A01 T005600-0  RH  067%=      5-min Rain = 0
KHA2 140529Z 21011KT 06/00 A3023 RMK A01 T00560000  RH  067%=      5-min Rain = 0
KHA2 140530Z 21011KT 06/00 A3023 RMK A01 T005500-0  RH  067%=      5-min Rain = 0
KHA2 140531Z 21011KT 06/00 A3023 RMK A01 T005500-0  RH  068%=      5-min Rain = 0
KHA2 140532Z 21011KT 05/M00 A3023 RMK A01 T00541001  RH  068%=      5-min Rain = 0
KHA2 140533Z 21011KT 05/M00 A3023 RMK A01 T00541001  RH  068%=      5-min Rain = 0
KHA2 140534Z 21011KT 05/M00 A3023 RMK A01 T00531001  RH  068%=      5-min Rain = 0
KHA2 140535Z 21011KT 05/M00 A3023 RMK A01 T00531001  RH  068%=      5-min Rain = 0
KHA2 140536Z 21010KT 05/M00 A3023 RMK A01 T00531001  RH  068%=      5-min Rain = 0
KHA2 140537Z 20010KT 05/M00 A3023 RMK A01 T00531001  RH  068%=      5-min Rain = 0
KHA2 140538Z 20010KT 05/M00 A3023 RMK A01 T00531001  RH  068%=      5-min Rain = 0
KHA2 140539Z 20010KT 05/M00 A3023 RMK A01 T00531001  RH  068%=      5-min Rain = 0
KHA2 140540Z 20010KT 05/M00 A3023 RMK A01 T00521001  RH  068%=      5-min Rain = 0
KHA2 140541Z 20010KT 05/M00 A3023 RMK A01 T00531001  RH  068%=      5-min Rain = 0
KHA2 140542Z 20010KT 05/M00 A3023 RMK A01 T00521001  RH  068%=      5-min Rain = 0
KHA2 140543Z 20010KT 05/M00 A3023 RMK A01 T00521001  RH  068%=      5-min Rain = 0
KHA2 140544Z 20010KT 05/00 A3023 RMK A01 T005300-0  RH  069%=      5-min Rain = 0
KHA2 140545Z 20009KT 05/00 A3023 RMK A01 T00530000  RH  069%=      5-min Rain = 0
KHA2 140546Z 21009KT 05/00 A3023 RMK A01 T00540001  RH  068%=      5-min Rain = 0
KHA2 140547Z 20009KT 05/00 A3023 RMK A01 T00540000  RH  068%=      5-min Rain = 0
KHA2 140548Z 21009KT 05/00 A3023 RMK A01 T00540000  RH  068%=      5-min Rain = 0
KHA2 140549Z 21009KT 05/00 A3023 RMK A01 T00540000  RH  068%=      5-min Rain = 0
KHA2 140550Z 21009KT 05/00 A3023 RMK A01 T005400-0  RH  068%=      5-min Rain = 0
KHA2 140551Z 21009KT 05/M00 A3023 RMK A01 T00541001  RH  068%=      5-min Rain = 0
KHA2 140552Z 21009KT 05/00 A3023 RMK A01 T005400-0  RH  068%=      5-min Rain = 0
KHA2 140553Z 21009KT 06/00 A3023 RMK A01 T00550002  RH  068%=      5-min Rain = 0
KHA2 140554Z 21009KT 06/00 A3023 RMK A01 T00580003  RH  068%=      5-min Rain = 0
KHA2 140555Z 21009KT 06/00 A3023 RMK A01 T00590004  RH  067%=      5-min Rain = 0
KHA2 140556Z 21008KT 06/00 A3023 RMK A01 T00600003  RH  067%=      5-min Rain = 0
KHA2 140557Z 21008KT 06/00 A3023 RMK A01 T00600003  RH  067%=      5-min Rain = 0
KHA2 140558Z 21008KT 06/00 A3023 RMK A01 T00600002  RH  067%=      5-min Rain = 0
KHA2 140559Z 21007KT 06/00 A3023 RMK A01 T00600002  RH  067%=      5-min Rain = 0

Page generated in 0.1392 seconds.